Time,TemperatureF,DewpointF,PressureIn,WindDirection,WindDirectionDegrees,WindSpeedMPH,WindSpeedGustMPH,Humidity,HourlyPrecipIn,Conditions,Clouds,dailyrainin,SoftwareType,DateUTC
2013-07-21 00:00:00,53.9,26.2,29.71,NW,322,0.0,19.0,34,0.00,,---,0.00,VWS V12.07,2013-07-21 07:00:00,
2013-07-21 00:01:00,53.8,26.1,29.71,NW,322,0.0,19.0,34,0.00,,---,0.00,VWS V12.07,2013-07-21 07:01:00,
2013-07-21 00:03:00,53.8,26.1,29.71,NW,322,0.0,19.0,34,0.00,,---,0.00,VWS V12.07,2013-07-21 07:03:00,
2013-07-21 00:04:00,53.8,26.1,29.71,NW,322,0.0,19.0,34,0.00,,---,0.00,VWS V12.07,2013-07-21 07:04:00,
2013-07-21 00:06:00,53.6,25.9,29.71,NW,322,0.0,19.0,34,0.00,,---,0.00,VWS V12.07,2013-07-21 07:06:00,
2013-07-21 00:07:00,53.6,25.9,29.71,NW,322,0.0,19.0,34,0.00,,---,0.00,VWS V12.07,2013-07-21 07:07:00,
2013-07-21 00:09:00,53.6,25.9,29.71,NW,322,0.0,19.0,34,0.00,,---,0.00,VWS V12.07,2013-07-21 07:09:00,
2013-07-21 00:10:00,53.5,25.8,29.71,NW,322,0.0,19.0,34,0.00,,---,0.00,VWS V12.07,2013-07-21 07:10:00,
2013-07-21 00:12:00,53.3,25.7,29.71,NW,322,0.0,19.0,34,0.00,,---,0.00,VWS V12.07,2013-07-21 07:12:00,
2013-07-21 00:13:00,53.3,26.4,29.71,NW,322,0.0,19.0,35,0.00,,---,0.00,VWS V12.07,2013-07-21 07:13:00,
2013-07-21 00:14:00,53.2,26.3,29.71,NW,322,0.0,19.0,35,0.00,,---,0.00,VWS V12.07,2013-07-21 07:14:00,
2013-07-21 00:15:00,53.2,26.3,29.71,NW,322,0.0,19.0,35,0.00,,---,0.00,VWS V12.07,2013-07-21 07:15:00,
2013-07-21 00:17:00,53.1,26.2,29.71,NW,322,0.0,19.0,35,0.00,,---,0.00,VWS V12.07,2013-07-21 07:17:00,
2013-07-21 00:18:00,52.9,26.0,29.71,NW,322,0.0,19.0,35,0.00,,---,0.00,VWS V12.07,2013-07-21 07:18:00,
2013-07-21 00:19:00,52.8,25.9,29.71,NW,322,0.0,19.0,35,0.00,,---,0.00,VWS V12.07,2013-07-21 07:19:00,
2013-07-21 00:20:00,52.8,25.9,29.71,NW,322,0.0,19.0,35,0.00,,---,0.00,VWS V12.07,2013-07-21 07:20:00,
2013-07-21 00:22:00,52.6,25.8,29.71,NW,322,0.0,19.0,35,0.00,,---,0.00,VWS V12.07,2013-07-21 07:22:00,
2013-07-21 00:23:00,52.5,25.7,29.71,NW,322,0.0,19.0,35,0.00,,---,0.00,VWS V12.07,2013-07-21 07:23:00,
2013-07-21 00:24:00,52.5,26.3,29.71,NW,322,0.0,19.0,36,0.00,,---,0.00,VWS V12.07,2013-07-21 07:24:00,
2013-07-21 00:25:00,52.5,26.3,29.71,NW,322,0.0,19.0,36,0.00,,---,0.00,VWS V12.07,2013-07-21 07:25:00,
2013-07-21 00:27:00,52.3,26.2,29.71,NW,322,0.0,19.0,36,0.00,,---,0.00,VWS V12.07,2013-07-21 07:27:00,
2013-07-21 00:28:00,52.3,26.2,29.71,NW,322,0.0,19.0,36,0.00,,---,0.00,VWS V12.07,2013-07-21 07:28:00,
2013-07-21 00:30:00,52.2,26.1,29.72,NW,322,0.0,19.0,36,0.00,,---,0.00,VWS V12.07,2013-07-21 07:30:00,
2013-07-21 00:32:00,52.0,25.9,29.72,NW,322,0.0,19.0,36,0.00,,---,0.00,VWS V12.07,2013-07-21 07:32:00,
2013-07-21 00:33:00,52.0,25.9,29.72,NW,322,0.0,19.0,36,0.00,,---,0.00,VWS V12.07,2013-07-21 07:33:00,
2013-07-21 00:35:00,51.9,26.5,29.72,NW,322,0.0,19.0,37,0.00,,---,0.00,VWS V12.07,2013-07-21 07:35:00,
2013-07-21 00:36:00,51.9,26.5,29.72,NW,322,0.0,19.0,37,0.00,,---,0.00,VWS V12.07,2013-07-21 07:36:00,
2013-07-21 00:37:00,51.9,26.5,29.72,NW,322,0.0,19.0,37,0.00,,---,0.00,VWS V12.07,2013-07-21 07:37:00,
2013-07-21 00:38:00,51.7,26.9,29.72,NW,322,0.0,19.0,38,0.00,,---,0.00,VWS V12.07,2013-07-21 07:38:00,
2013-07-21 00:41:00,51.6,26.8,29.72,NW,322,0.0,19.0,38,0.00,,---,0.00,VWS V12.07,2013-07-21 07:41:00,
2013-07-21 00:42:00,51.6,26.2,29.72,NW,322,0.0,19.0,37,0.00,,---,0.00,VWS V12.07,2013-07-21 07:42:00,
2013-07-21 00:43:00,51.6,26.2,29.72,NW,322,0.0,19.0,37,0.00,,---,0.00,VWS V12.07,2013-07-21 07:43:00,
2013-07-21 00:46:00,51.4,26.0,29.72,NW,322,0.0,19.0,37,0.00,,---,0.00,VWS V12.07,2013-07-21 07:46:00,
2013-07-21 00:48:00,51.3,25.9,29.72,NW,322,0.0,19.0,37,0.00,,---,0.00,VWS V12.07,2013-07-21 07:48:00,
2013-07-21 00:49:00,51.3,25.9,29.72,NW,322,0.0,19.0,37,0.00,,---,0.00,VWS V12.07,2013-07-21 07:49:00,
2013-07-21 00:51:00,51.0,26.3,29.72,NW,322,0.0,19.0,38,0.00,,---,0.00,VWS V12.07,2013-07-21 07:51:00,
2013-07-21 00:52:00,51.0,26.9,29.72,NW,322,0.0,19.0,39,0.00,,---,0.00,VWS V12.07,2013-07-21 07:52:00,
2013-07-21 00:53:00,51.0,26.9,29.72,NW,322,0.0,19.0,39,0.00,,---,0.00,VWS V12.07,2013-07-21 07:53:00,
2013-07-21 00:54:00,50.8,26.8,29.72,NW,322,0.0,19.0,39,0.00,,---,0.00,VWS V12.07,2013-07-21 07:54:00,
2013-07-21 00:55:00,50.8,26.8,29.72,NW,322,0.0,19.0,39,0.00,,---,0.00,VWS V12.07,2013-07-21 07:55:00,
2013-07-21 00:56:00,50.8,26.8,29.72,NW,322,0.0,19.0,39,0.00,,---,0.00,VWS V12.07,2013-07-21 07:56:00,
2013-07-21 00:57:00,50.7,26.7,29.72,NW,322,0.0,19.0,39,0.00,,---,0.00,VWS V12.07,2013-07-21 07:57:00,
2013-07-21 00:58:00,50.7,26.7,29.72,NW,322,0.0,19.0,39,0.00,,---,0.00,VWS V12.07,2013-07-21 07:58:00,
2013-07-21 01:00:00,50.7,26.7,29.71,NW,322,0.0,19.0,39,0.00,,---,0.00,VWS V12.07,2013-07-21 08:00:00,
2013-07-21 01:02:00,50.7,26.7,29.71,NW,322,0.0,19.0,39,0.00,,---,0.00,VWS V12.07,2013-07-21 08:02:00,
2013-07-21 01:03:00,50.7,26.7,29.71,NW,322,0.0,19.0,39,0.00,,---,0.00,VWS V12.07,2013-07-21 08:03:00,
2013-07-21 01:05:00,50.7,26.0,29.71,NW,322,0.0,19.0,38,0.00,,---,0.00,VWS V12.07,2013-07-21 08:05:00,
2013-07-21 01:08:00,50.5,26.5,29.71,NW,322,0.0,19.0,39,0.00,,---,0.00,VWS V12.07,2013-07-21 08:08:00,
2013-07-21 01:10:00,50.4,26.4,29.71,NW,322,0.0,19.0,39,0.00,,---,0.00,VWS V12.07,2013-07-21 08:10:00,
2013-07-21 01:13:00,50.1,26.1,29.71,NW,322,0.0,19.0,39,0.00,,---,0.00,VWS V12.07,2013-07-21 08:13:00,
2013-07-21 01:14:00,50.1,26.1,29.71,NW,322,0.0,19.0,39,0.00,,---,0.00,VWS V12.07,2013-07-21 08:14:00,
2013-07-21 01:15:00,49.9,26.0,29.70,NW,322,0.0,19.0,39,0.00,,---,0.00,VWS V12.07,2013-07-21 08:15:00,
2013-07-21 01:16:00,49.9,26.0,29.70,NW,322,0.0,19.0,39,0.00,,---,0.00,VWS V12.07,2013-07-21 08:16:00,
2013-07-21 01:19:00,49.8,25.9,29.70,NW,322,0.0,19.0,39,0.00,,---,0.00,VWS V12.07,2013-07-21 08:19:00,
2013-07-21 01:20:00,49.8,25.9,29.70,NW,322,0.0,19.0,39,0.00,,---,0.00,VWS V12.07,2013-07-21 08:20:00,
2013-07-21 01:21:00,49.6,25.7,29.70,NW,322,0.0,19.0,39,0.00,,---,0.00,VWS V12.07,2013-07-21 08:21:00,
2013-07-21 01:24:00,49.5,26.2,29.70,NW,322,0.0,19.0,40,0.00,,---,0.00,VWS V12.07,2013-07-21 08:24:00,
2013-07-21 01:25:00,49.5,26.2,29.70,NW,322,0.0,19.0,40,0.00,,---,0.00,VWS V12.07,2013-07-21 08:25:00,
2013-07-21 01:26:00,49.4,26.1,29.70,NW,322,0.0,19.0,40,0.00,,---,0.00,VWS V12.07,2013-07-21 08:26:00,
2013-07-21 01:27:00,49.4,26.1,29.70,NW,322,0.0,19.0,40,0.00,,---,0.00,VWS V12.07,2013-07-21 08:27:00,
2013-07-21 01:29:00,49.2,27.1,29.70,NW,322,0.0,19.0,42,0.00,,---,0.00,VWS V12.07,2013-07-21 08:29:00,
2013-07-21 01:30:00,49.2,27.1,29.71,NW,322,0.0,19.0,42,0.00,,---,0.00,VWS V12.07,2013-07-21 08:30:00,
2013-07-21 01:31:00,49.1,27.0,29.71,NW,322,0.0,19.0,42,0.00,,---,0.00,VWS V12.07,2013-07-21 08:31:00,
2013-07-21 01:32:00,49.1,27.0,29.71,NW,322,0.0,19.0,42,0.00,,---,0.00,VWS V12.07,2013-07-21 08:32:00,
2013-07-21 01:34:00,48.8,26.2,29.71,NW,322,0.0,19.0,41,0.00,,---,0.00,VWS V12.07,2013-07-21 08:34:00,
2013-07-21 01:35:00,48.8,26.2,29.71,NW,322,0.0,19.0,41,0.00,,---,0.00,VWS V12.07,2013-07-21 08:35:00,
2013-07-21 01:36:00,48.8,26.2,29.71,NW,322,0.0,19.0,41,0.00,,---,0.00,VWS V12.07,2013-07-21 08:36:00,
2013-07-21 01:37:00,48.6,26.0,29.71,NW,322,0.0,19.0,41,0.00,,---,0.00,VWS V12.07,2013-07-21 08:37:00,
2013-07-21 01:40:00,48.5,25.9,29.71,NW,322,0.0,19.0,41,0.00,,---,0.00,VWS V12.07,2013-07-21 08:40:00,
2013-07-21 01:41:00,48.5,26.5,29.71,NW,322,0.0,19.0,42,0.00,,---,0.00,VWS V12.07,2013-07-21 08:41:00,
2013-07-21 01:42:00,48.3,26.3,29.71,NW,322,0.0,19.0,42,0.00,,---,0.00,VWS V12.07,2013-07-21 08:42:00,
2013-07-21 01:45:00,48.2,26.2,29.71,NW,322,0.0,19.0,42,0.00,,---,0.00,VWS V12.07,2013-07-21 08:45:00,
2013-07-21 01:46:00,48.0,26.0,29.71,NW,322,0.0,19.0,42,0.00,,---,0.00,VWS V12.07,2013-07-21 08:46:00,
2013-07-21 01:47:00,48.0,26.0,29.71,NW,322,0.0,19.0,42,0.00,,---,0.00,VWS V12.07,2013-07-21 08:47:00,
2013-07-21 01:50:00,47.9,25.9,29.71,NW,322,0.0,19.0,42,0.00,,---,0.00,VWS V12.07,2013-07-21 08:50:00,
2013-07-21 01:51:00,47.7,25.8,29.71,NW,322,0.0,19.0,42,0.00,,---,0.00,VWS V12.07,2013-07-21 08:51:00,
2013-07-21 01:52:00,47.7,25.8,29.71,NW,322,0.0,19.0,42,0.00,,---,0.00,VWS V12.07,2013-07-21 08:52:00,
2013-07-21 01:55:00,47.6,25.7,29.71,NW,322,0.0,19.0,42,0.00,,---,0.00,VWS V12.07,2013-07-21 08:55:00,
2013-07-21 01:57:00,47.6,25.7,29.71,NW,322,0.0,19.0,42,0.00,,---,0.00,VWS V12.07,2013-07-21 08:57:00,
2013-07-21 01:58:00,47.6,25.7,29.71,NW,322,0.0,19.0,42,0.00,,---,0.00,VWS V12.07,2013-07-21 08:58:00,
2013-07-21 02:00:00,47.4,26.0,29.71,NW,322,0.0,19.0,43,0.00,,---,0.00,VWS V12.07,2013-07-21 09:00:00,
2013-07-21 02:02:00,47.3,26.0,29.71,NW,322,0.0,19.0,43,0.00,,---,0.00,VWS V12.07,2013-07-21 09:02:00,
2013-07-21 02:03:00,47.3,25.4,29.71,NW,322,0.0,19.0,42,0.00,,---,0.00,VWS V12.07,2013-07-21 09:03:00,
2013-07-21 02:06:00,47.0,25.1,29.71,NW,322,0.0,19.0,42,0.00,,---,0.00,VWS V12.07,2013-07-21 09:06:00,
2013-07-21 02:07:00,47.0,25.1,29.71,NW,322,0.0,19.0,42,0.00,,---,0.00,VWS V12.07,2013-07-21 09:07:00,
2013-07-21 02:08:00,47.0,25.1,29.71,NW,322,0.0,19.0,42,0.00,,---,0.00,VWS V12.07,2013-07-21 09:08:00,
2013-07-21 02:11:00,46.8,25.5,29.71,NW,322,0.0,19.0,43,0.00,,---,0.00,VWS V12.07,2013-07-21 09:11:00,
2013-07-21 02:12:00,46.7,25.4,29.71,NW,322,0.0,19.0,43,0.00,,---,0.00,VWS V12.07,2013-07-21 09:12:00,
2013-07-21 02:13:00,46.7,25.4,29.71,NW,322,0.0,19.0,43,0.00,,---,0.00,VWS V12.07,2013-07-21 09:13:00,
2013-07-21 02:14:00,46.5,24.7,29.73,NW,322,0.0,19.0,42,0.00,,---,0.00,VWS V12.07,2013-07-21 09:14:00,
2013-07-21 02:17:00,46.4,24.6,29.73,NW,322,0.0,19.0,42,0.00,,---,0.00,VWS V12.07,2013-07-21 09:17:00,
2013-07-21 02:18:00,46.4,24.6,29.73,NW,322,0.0,19.0,42,0.00,,---,0.00,VWS V12.07,2013-07-21 09:18:00,
2013-07-21 02:19:00,46.2,24.4,29.73,NW,322,0.0,19.0,42,0.00,,---,0.00,VWS V12.07,2013-07-21 09:19:00,
2013-07-21 02:22:00,46.0,24.8,29.73,NW,322,0.0,19.0,43,0.00,,---,0.00,VWS V12.07,2013-07-21 09:22:00,
2013-07-21 02:23:00,46.0,24.2,29.73,NW,322,0.0,19.0,42,0.00,,---,0.00,VWS V12.07,2013-07-21 09:23:00,
2013-07-21 02:24:00,45.8,24.0,29.73,NW,322,0.0,19.0,42,0.00,,---,0.00,VWS V12.07,2013-07-21 09:24:00,
2013-07-21 02:25:00,45.8,24.0,29.73,NW,322,0.0,19.0,42,0.00,,---,0.00,VWS V12.07,2013-07-21 09:25:00,
2013-07-21 02:28:00,45.7,23.9,29.73,NW,322,0.0,19.0,42,0.00,,---,0.00,VWS V12.07,2013-07-21 09:28:00,
2013-07-21 02:29:00,45.7,23.9,29.73,NW,322,0.0,19.0,42,0.00,,---,0.00,VWS V12.07,2013-07-21 09:29:00,
2013-07-21 02:30:00,45.7,23.9,29.73,NW,322,0.0,19.0,42,0.00,,---,0.00,VWS V12.07,2013-07-21 09:30:00,
2013-07-21 02:33:00,45.5,23.2,29.73,NW,322,0.0,19.0,41,0.00,,---,0.00,VWS V12.07,2013-07-21 09:33:00,
2013-07-21 02:34:00,45.4,23.1,29.73,NW,322,0.0,19.0,41,0.00,,---,0.00,VWS V12.07,2013-07-21 09:34:00,
2013-07-21 02:35:00,45.4,23.1,29.73,NW,322,0.0,19.0,41,0.00,,---,0.00,VWS V12.07,2013-07-21 09:35:00,
2013-07-21 02:38:00,45.2,23.5,29.73,NW,322,0.0,19.0,42,0.00,,---,0.00,VWS V12.07,2013-07-21 09:38:00,
2013-07-21 02:39:00,45.1,23.4,29.73,NW,322,0.0,19.0,42,0.00,,---,0.00,VWS V12.07,2013-07-21 09:39:00,
2013-07-21 02:40:00,45.1,23.4,29.73,NW,322,0.0,19.0,42,0.00,,---,0.00,VWS V12.07,2013-07-21 09:40:00,
2013-07-21 02:43:00,44.9,22.6,29.73,NW,322,0.0,19.0,41,0.00,,---,0.00,VWS V12.07,2013-07-21 09:43:00,
2013-07-21 02:45:00,44.8,22.5,29.74,NW,322,0.0,19.0,41,0.00,,---,0.00,VWS V12.07,2013-07-21 09:45:00,
2013-07-21 02:48:00,44.6,22.4,29.74,NW,322,0.0,19.0,41,0.00,,---,0.00,VWS V12.07,2013-07-21 09:48:00,
2013-07-21 02:49:00,44.6,22.4,29.74,NW,322,0.0,19.0,41,0.00,,---,0.00,VWS V12.07,2013-07-21 09:49:00,
2013-07-21 02:50:00,44.5,22.3,29.74,NW,322,0.0,19.0,41,0.00,,---,0.00,VWS V12.07,2013-07-21 09:50:00,
2013-07-21 02:53:00,44.3,22.1,29.74,NW,322,0.0,19.0,41,0.00,,---,0.00,VWS V12.07,2013-07-21 09:53:00,
2013-07-21 02:54:00,44.3,22.1,29.74,NW,322,0.0,19.0,41,0.00,,---,0.00,VWS V12.07,2013-07-21 09:54:00,
2013-07-21 02:55:00,44.3,22.1,29.74,NW,322,0.0,19.0,41,0.00,,---,0.00,VWS V12.07,2013-07-21 09:55:00,
2013-07-21 02:56:00,44.3,22.1,29.74,NW,322,0.0,19.0,41,0.00,,---,0.00,VWS V12.07,2013-07-21 09:56:00,
2013-07-21 02:59:00,44.2,22.0,29.74,NW,322,0.0,19.0,41,0.00,,---,0.00,VWS V12.07,2013-07-21 09:59:00,
2013-07-21 03:00:00,44.2,22.0,29.74,NW,322,0.0,19.0,41,0.00,,---,0.00,VWS V12.07,2013-07-21 10:00:00,
2013-07-21 03:01:00,44.1,21.9,29.74,NW,322,0.0,19.0,41,0.00,,---,0.00,VWS V12.07,2013-07-21 10:01:00,
2013-07-21 03:04:00,44.1,21.9,29.74,NW,322,0.0,19.0,41,0.00,,---,0.00,VWS V12.07,2013-07-21 10:04:00,
2013-07-21 03:05:00,44.1,21.9,29.74,NW,322,0.0,19.0,41,0.00,,---,0.00,VWS V12.07,2013-07-21 10:05:00,
2013-07-21 03:06:00,44.1,21.9,29.74,NW,322,0.0,19.0,41,0.00,,---,0.00,VWS V12.07,2013-07-21 10:06:00,
2013-07-21 03:10:00,43.9,21.7,29.74,NW,322,0.0,19.0,41,0.00,,---,0.00,VWS V12.07,2013-07-21 10:10:00,
2013-07-21 03:11:00,43.8,21.6,29.74,NW,322,0.0,19.0,41,0.00,,---,0.00,VWS V12.07,2013-07-21 10:11:00,
2013-07-21 03:15:00,43.6,21.5,29.74,NW,322,0.0,19.0,41,0.00,,---,0.00,VWS V12.07,2013-07-21 10:15:00,
2013-07-21 03:16:00,43.6,21.5,29.74,NW,322,0.0,19.0,41,0.00,,---,0.00,VWS V12.07,2013-07-21 10:16:00,
2013-07-21 03:20:00,43.3,21.8,29.74,NW,322,0.0,19.0,42,0.00,,---,0.00,VWS V12.07,2013-07-21 10:20:00,
2013-07-21 03:21:00,43.3,21.8,29.74,NW,322,0.0,19.0,42,0.00,,---,0.00,VWS V12.07,2013-07-21 10:21:00,
2013-07-21 03:22:00,43.3,21.8,29.74,NW,322,0.0,19.0,42,0.00,,---,0.00,VWS V12.07,2013-07-21 10:22:00,
2013-07-21 03:25:00,43.1,21.6,29.74,NW,322,0.0,19.0,42,0.00,,---,0.00,VWS V12.07,2013-07-21 10:25:00,
2013-07-21 03:26:00,43.1,21.6,29.74,NW,322,0.0,19.0,42,0.00,,---,0.00,VWS V12.07,2013-07-21 10:26:00,
2013-07-21 03:27:00,43.1,21.6,29.74,NW,322,0.0,19.0,42,0.00,,---,0.00,VWS V12.07,2013-07-21 10:27:00,
2013-07-21 03:30:00,42.8,21.9,29.74,NW,322,0.0,19.0,43,0.00,,---,0.00,VWS V12.07,2013-07-21 10:30:00,
2013-07-21 03:31:00,42.8,21.9,29.74,NW,322,0.0,19.0,43,0.00,,---,0.00,VWS V12.07,2013-07-21 10:31:00,
2013-07-21 03:32:00,42.8,21.9,29.74,NW,322,0.0,19.0,43,0.00,,---,0.00,VWS V12.07,2013-07-21 10:32:00,
2013-07-21 03:33:00,42.8,21.9,29.74,NW,322,0.0,19.0,43,0.00,,---,0.00,VWS V12.07,2013-07-21 10:33:00,
2013-07-21 03:36:00,42.5,21.6,29.74,NW,322,0.0,19.0,43,0.00,,---,0.00,VWS V12.07,2013-07-21 10:36:00,
2013-07-21 03:37:00,42.5,21.6,29.74,NW,322,0.0,19.0,43,0.00,,---,0.00,VWS V12.07,2013-07-21 10:37:00,
2013-07-21 03:38:00,42.5,21.6,29.74,NW,322,0.0,19.0,43,0.00,,---,0.00,VWS V12.07,2013-07-21 10:38:00,
2013-07-21 03:42:00,42.5,21.6,29.74,NW,322,0.0,19.0,43,0.00,,---,0.00,VWS V12.07,2013-07-21 10:42:00,
2013-07-21 03:43:00,42.5,21.6,29.74,NW,322,0.0,19.0,43,0.00,,---,0.00,VWS V12.07,2013-07-21 10:43:00,
2013-07-21 03:47:00,42.5,22.1,29.74,NW,322,0.0,19.0,44,0.00,,---,0.00,VWS V12.07,2013-07-21 10:47:00,
2013-07-21 03:48:00,42.5,22.1,29.74,NW,322,0.0,19.0,44,0.00,,---,0.00,VWS V12.07,2013-07-21 10:48:00,
2013-07-21 03:52:00,42.5,22.7,29.74,NW,322,0.0,19.0,45,0.00,,---,0.00,VWS V12.07,2013-07-21 10:52:00,
2013-07-21 03:53:00,42.5,19.3,29.74,NW,322,0.0,19.0,39,0.00,,---,0.00,VWS V12.07,2013-07-21 10:53:00,
2013-07-21 03:54:00,42.3,19.1,29.74,NW,322,0.0,19.0,39,0.00,,---,0.00,VWS V12.07,2013-07-21 10:54:00,
2013-07-21 03:57:00,42.2,19.6,29.74,NW,322,0.0,19.0,40,0.00,,---,0.00,VWS V12.07,2013-07-21 10:57:00,
2013-07-21 03:58:00,42.2,19.6,29.74,NW,322,0.0,19.0,40,0.00,,---,0.00,VWS V12.07,2013-07-21 10:58:00,
2013-07-21 03:59:00,42.1,19.5,29.74,NW,322,0.0,19.0,40,0.00,,---,0.00,VWS V12.07,2013-07-21 10:59:00,
2013-07-21 04:02:00,41.9,19.4,29.74,NW,322,0.0,19.0,40,0.00,,---,0.00,VWS V12.07,2013-07-21 11:02:00,
2013-07-21 04:03:00,41.9,19.4,29.74,NW,322,0.0,19.0,40,0.00,,---,0.00,VWS V12.07,2013-07-21 11:03:00,
2013-07-21 04:04:00,41.9,19.4,29.74,NW,322,0.0,19.0,40,0.00,,---,0.00,VWS V12.07,2013-07-21 11:04:00,
2013-07-21 04:05:00,41.9,19.4,29.74,NW,322,0.0,19.0,40,0.00,,---,0.00,VWS V12.07,2013-07-21 11:05:00,
2013-07-21 04:08:00,41.8,19.3,29.74,NW,322,0.0,19.0,40,0.00,,---,0.00,VWS V12.07,2013-07-21 11:08:00,
2013-07-21 04:09:00,41.8,19.3,29.74,NW,322,0.0,19.0,40,0.00,,---,0.00,VWS V12.07,2013-07-21 11:09:00,
2013-07-21 04:11:00,41.6,19.1,29.74,NW,322,0.0,19.0,40,0.00,,---,0.00,VWS V12.07,2013-07-21 11:11:00,
2013-07-21 04:13:00,41.6,19.7,29.74,NW,322,0.0,19.0,41,0.00,,---,0.00,VWS V12.07,2013-07-21 11:13:00,
2013-07-21 04:14:00,41.5,19.0,29.74,NW,322,0.0,19.0,40,0.00,,---,0.00,VWS V12.07,2013-07-21 11:14:00,
2013-07-21 04:16:00,41.5,19.6,29.75,NW,322,0.0,19.0,41,0.00,,---,0.00,VWS V12.07,2013-07-21 11:16:00,
2013-07-21 04:18:00,41.5,19.6,29.75,NW,322,0.0,19.0,41,0.00,,---,0.00,VWS V12.07,2013-07-21 11:18:00,
2013-07-21 04:19:00,41.5,19.6,29.75,NW,322,0.0,19.0,41,0.00,,---,0.00,VWS V12.07,2013-07-21 11:19:00,
2013-07-21 04:20:00,41.5,19.6,29.75,NW,322,0.0,19.0,41,0.00,,---,0.00,VWS V12.07,2013-07-21 11:20:00,
2013-07-21 04:22:00,41.5,19.6,29.75,NW,322,0.0,19.0,41,0.00,,---,0.00,VWS V12.07,2013-07-21 11:22:00,
2013-07-21 04:23:00,41.5,19.6,29.75,NW,322,0.0,19.0,41,0.00,,---,0.00,VWS V12.07,2013-07-21 11:23:00,
2013-07-21 04:24:00,41.5,20.1,29.75,NW,322,0.0,19.0,42,0.00,,---,0.00,VWS V12.07,2013-07-21 11:24:00,
2013-07-21 04:25:00,41.5,20.1,29.75,NW,322,0.0,19.0,42,0.00,,---,0.00,VWS V12.07,2013-07-21 11:25:00,
2013-07-21 04:26:00,41.5,19.6,29.75,NW,322,0.0,19.0,41,0.00,,---,0.00,VWS V12.07,2013-07-21 11:26:00,
2013-07-21 04:27:00,41.5,19.6,29.75,NW,322,0.0,19.0,41,0.00,,---,0.00,VWS V12.07,2013-07-21 11:27:00,
2013-07-21 04:28:00,41.6,19.7,29.75,NW,322,0.0,19.0,41,0.00,,---,0.00,VWS V12.07,2013-07-21 11:28:00,
2013-07-21 04:29:00,41.6,19.7,29.75,NW,322,0.0,19.0,41,0.00,,---,0.00,VWS V12.07,2013-07-21 11:29:00,
2013-07-21 04:30:00,41.6,20.2,29.75,NW,322,0.0,19.0,42,0.00,,---,0.00,VWS V12.07,2013-07-21 11:30:00,
2013-07-21 04:31:00,41.6,20.8,29.75,NW,322,0.0,19.0,43,0.00,,---,0.00,VWS V12.07,2013-07-21 11:31:00,
2013-07-21 04:33:00,41.5,20.1,29.75,NW,322,0.0,19.0,42,0.00,,---,0.00,VWS V12.07,2013-07-21 11:33:00,
2013-07-21 04:34:00,41.5,20.1,29.75,NW,322,0.0,19.0,42,0.00,,---,0.00,VWS V12.07,2013-07-21 11:34:00,
2013-07-21 04:35:00,41.5,20.1,29.75,NW,322,0.0,19.0,42,0.00,,---,0.00,VWS V12.07,2013-07-21 11:35:00,
2013-07-21 04:36:00,41.5,20.1,29.75,NW,322,0.0,19.0,42,0.00,,---,0.00,VWS V12.07,2013-07-21 11:36:00,
2013-07-21 04:38:00,41.3,20.0,29.75,NW,322,0.0,19.0,42,0.00,,---,0.00,VWS V12.07,2013-07-21 11:38:00,
2013-07-21 04:39:00,41.3,20.0,29.75,NW,322,0.0,19.0,42,0.00,,---,0.00,VWS V12.07,2013-07-21 11:39:00,
2013-07-21 04:40:00,41.3,20.0,29.75,NW,322,0.0,19.0,42,0.00,,---,0.00,VWS V12.07,2013-07-21 11:40:00,
2013-07-21 04:41:00,41.3,20.0,29.75,NW,322,0.0,19.0,42,0.00,,---,0.00,VWS V12.07,2013-07-21 11:41:00,
2013-07-21 04:43:00,41.3,20.5,29.75,NW,322,0.0,19.0,43,0.00,,---,0.00,VWS V12.07,2013-07-21 11:43:00,
2013-07-21 04:44:00,41.2,26.3,29.74,NW,322,0.0,19.0,55,0.00,,---,0.00,VWS V12.07,2013-07-21 11:44:00,
2013-07-21 04:45:00,41.2,26.3,29.74,NW,322,0.0,19.0,55,0.00,,---,0.00,VWS V12.07,2013-07-21 11:45:00,
2013-07-21 04:46:00,41.2,26.3,29.74,NW,322,0.0,19.0,55,0.00,,---,0.00,VWS V12.07,2013-07-21 11:46:00,
2013-07-21 04:47:00,41.2,26.3,29.74,NW,322,0.0,19.0,55,0.00,,---,0.00,VWS V12.07,2013-07-21 11:47:00,
2013-07-21 04:49:00,41.3,26.4,29.74,NW,322,0.0,19.0,55,0.00,,---,0.00,VWS V12.07,2013-07-21 11:49:00,
2013-07-21 04:51:00,41.5,27.0,29.74,NW,322,0.0,19.0,56,0.00,,---,0.00,VWS V12.07,2013-07-21 11:51:00,
2013-07-21 04:52:00,41.6,27.9,29.74,NW,322,0.0,19.0,58,0.00,,---,0.00,VWS V12.07,2013-07-21 11:52:00,
2013-07-21 04:54:00,41.8,28.1,29.74,NW,322,0.0,19.0,58,0.00,,---,0.00,VWS V12.07,2013-07-21 11:54:00,
2013-07-21 04:56:00,41.9,28.6,29.74,NW,322,0.0,19.0,59,0.00,,---,0.00,VWS V12.07,2013-07-21 11:56:00,
2013-07-21 04:57:00,42.1,28.0,29.74,NW,322,0.0,19.0,57,0.00,,---,0.00,VWS V12.07,2013-07-21 11:57:00,
2013-07-21 04:59:00,42.1,28.4,29.74,NW,322,0.0,19.0,58,0.00,,---,0.00,VWS V12.07,2013-07-21 11:59:00,
2013-07-21 05:01:00,42.1,28.4,29.74,NW,322,0.0,19.0,58,0.00,,---,0.00,VWS V12.07,2013-07-21 12:01:00,
2013-07-21 05:02:00,42.1,28.4,29.74,NW,322,0.0,19.0,58,0.00,,---,0.00,VWS V12.07,2013-07-21 12:02:00,
2013-07-21 05:04:00,42.1,28.8,29.74,NW,322,0.0,19.0,59,0.00,,---,0.00,VWS V12.07,2013-07-21 12:04:00,
2013-07-21 05:06:00,42.1,30.0,29.74,NW,322,0.0,19.0,62,0.00,,---,0.00,VWS V12.07,2013-07-21 12:06:00,
2013-07-21 05:07:00,42.1,29.6,29.74,NW,322,0.0,19.0,61,0.00,,---,0.00,VWS V12.07,2013-07-21 12:07:00,
2013-07-21 05:08:00,42.1,28.8,29.74,NW,322,0.0,19.0,59,0.00,,---,0.00,VWS V12.07,2013-07-21 12:08:00,
2013-07-21 05:09:00,42.1,28.4,29.74,NW,322,0.0,19.0,58,0.00,,---,0.00,VWS V12.07,2013-07-21 12:09:00,
2013-07-21 05:11:00,42.1,29.2,29.74,NW,322,0.0,19.0,60,0.00,,---,0.00,VWS V12.07,2013-07-21 12:11:00,
2013-07-21 05:12:00,42.1,29.2,29.74,NW,322,0.0,19.0,60,0.00,,---,0.00,VWS V12.07,2013-07-21 12:12:00,
2013-07-21 05:13:00,41.9,29.0,29.74,NW,322,0.0,19.0,60,0.00,,---,0.00,VWS V12.07,2013-07-21 12:13:00,
2013-07-21 05:14:00,41.9,28.6,29.74,NW,322,0.0,19.0,59,0.00,,---,0.00,VWS V12.07,2013-07-21 12:14:00,
2013-07-21 05:17:00,41.8,28.5,29.74,NW,322,0.0,19.0,59,0.00,,---,0.00,VWS V12.07,2013-07-21 12:17:00,
2013-07-21 05:18:00,41.9,29.9,29.74,NW,322,0.0,19.0,62,0.00,,---,0.00,VWS V12.07,2013-07-21 12:18:00,
2013-07-21 05:19:00,41.9,29.5,29.74,NW,322,0.0,19.0,61,0.00,,---,0.00,VWS V12.07,2013-07-21 12:19:00,
2013-07-21 05:21:00,41.9,29.0,29.74,NW,322,0.0,19.0,60,0.00,,---,0.00,VWS V12.07,2013-07-21 12:21:00,
2013-07-21 05:22:00,41.9,29.9,29.74,NW,322,0.0,19.0,62,0.00,,---,0.00,VWS V12.07,2013-07-21 12:22:00,
2013-07-21 05:23:00,41.9,29.0,29.74,NW,322,0.0,19.0,60,0.00,,---,0.00,VWS V12.07,2013-07-21 12:23:00,
2013-07-21 05:24:00,41.9,29.5,29.74,NW,322,0.0,19.0,61,0.00,,---,0.00,VWS V12.07,2013-07-21 12:24:00,
2013-07-21 05:26:00,41.8,29.8,29.74,NW,322,0.0,19.0,62,0.00,,---,0.00,VWS V12.07,2013-07-21 12:26:00,
2013-07-21 05:27:00,41.8,29.4,29.74,NW,322,0.0,19.0,61,0.00,,---,0.00,VWS V12.07,2013-07-21 12:27:00,
2013-07-21 05:28:00,41.8,29.8,29.74,NW,322,0.0,19.0,62,0.00,,---,0.00,VWS V12.07,2013-07-21 12:28:00,
2013-07-21 05:29:00,41.8,29.8,29.74,NW,322,0.0,19.0,62,0.00,,---,0.00,VWS V12.07,2013-07-21 12:29:00,
2013-07-21 05:30:00,41.9,29.9,29.74,NW,322,0.0,19.0,62,0.00,,---,0.00,VWS V12.07,2013-07-21 12:30:00,
2013-07-21 05:32:00,41.9,30.2,29.74,NW,322,0.0,19.0,63,0.00,,---,0.00,VWS V12.07,2013-07-21 12:32:00,
2013-07-21 05:33:00,41.9,29.5,29.74,NW,322,0.0,19.0,61,0.00,,---,0.00,VWS V12.07,2013-07-21 12:33:00,
2013-07-21 05:34:00,41.9,29.5,29.74,NW,322,0.0,19.0,61,0.00,,---,0.00,VWS V12.07,2013-07-21 12:34:00,
2013-07-21 05:35:00,41.9,29.0,29.74,NW,322,0.0,19.0,60,0.00,,---,0.00,VWS V12.07,2013-07-21 12:35:00,
2013-07-21 05:38:00,41.9,29.9,29.74,NW,322,0.0,19.0,62,0.00,,---,0.00,VWS V12.07,2013-07-21 12:38:00,
2013-07-21 05:39:00,42.1,29.6,29.74,NW,322,0.0,19.0,61,0.00,,---,0.00,VWS V12.07,2013-07-21 12:39:00,
2013-07-21 05:40:00,42.1,30.4,29.74,NW,322,0.0,19.0,63,0.00,,---,0.00,VWS V12.07,2013-07-21 12:40:00,
2013-07-21 05:43:00,42.1,30.8,29.74,NW,322,0.0,19.0,64,0.00,,---,0.00,VWS V12.07,2013-07-21 12:43:00,
2013-07-21 05:44:00,42.1,30.8,29.74,NW,322,0.0,19.0,64,0.00,,---,0.00,VWS V12.07,2013-07-21 12:44:00,
2013-07-21 05:45:00,42.2,30.9,29.74,NW,322,0.0,19.0,64,0.00,,---,0.00,VWS V12.07,2013-07-21 12:45:00,
2013-07-21 05:46:00,42.2,31.3,29.74,NW,322,0.0,19.0,65,0.00,,---,0.00,VWS V12.07,2013-07-21 12:46:00,
2013-07-21 05:48:00,42.2,30.9,29.74,NW,322,0.0,19.0,64,0.00,,---,0.00,VWS V12.07,2013-07-21 12:48:00,
2013-07-21 05:49:00,42.2,31.7,29.74,NW,322,0.0,19.0,66,0.00,,---,0.00,VWS V12.07,2013-07-21 12:49:00,
2013-07-21 05:50:00,42.3,31.8,29.74,NW,322,0.0,19.0,66,0.00,,---,0.00,VWS V12.07,2013-07-21 12:50:00,
2013-07-21 05:51:00,42.3,32.1,29.74,NW,322,0.0,19.0,67,0.00,,---,0.00,VWS V12.07,2013-07-21 12:51:00,
2013-07-21 05:53:00,42.5,32.3,29.74,NW,322,0.0,19.0,67,0.00,,---,0.00,VWS V12.07,2013-07-21 12:53:00,
2013-07-21 05:54:00,42.6,33.5,29.74,NW,322,0.0,19.0,70,0.00,,---,0.00,VWS V12.07,2013-07-21 12:54:00,
2013-07-21 05:55:00,42.8,33.3,29.74,NW,322,0.0,19.0,69,0.00,,---,0.00,VWS V12.07,2013-07-21 12:55:00,
2013-07-21 05:57:00,42.8,31.9,29.74,NW,322,0.0,19.0,65,0.00,,---,0.00,VWS V12.07,2013-07-21 12:57:00,
2013-07-21 05:58:00,42.6,32.4,29.74,NW,322,0.0,19.0,67,0.00,,---,0.00,VWS V12.07,2013-07-21 12:58:00,
2013-07-21 05:59:00,42.6,32.8,29.74,NW,322,0.0,19.0,68,0.00,,---,0.00,VWS V12.07,2013-07-21 12:59:00,
2013-07-21 06:00:00,42.6,32.8,29.74,NW,322,0.0,19.0,68,0.00,,---,0.00,VWS V12.07,2013-07-21 13:00:00,
2013-07-21 06:01:00,42.6,32.4,29.74,NW,322,0.0,19.0,67,0.00,,---,0.00,VWS V12.07,2013-07-21 13:01:00,
2013-07-21 06:02:00,42.6,32.8,29.74,NW,322,0.0,19.0,68,0.00,,---,0.00,VWS V12.07,2013-07-21 13:02:00,
2013-07-21 06:03:00,42.6,32.8,29.74,NW,322,0.0,19.0,68,0.00,,---,0.00,VWS V12.07,2013-07-21 13:03:00,
2013-07-21 06:05:00,42.6,33.2,29.74,NW,322,0.0,19.0,69,0.00,,---,0.00,VWS V12.07,2013-07-21 13:05:00,
2013-07-21 06:06:00,42.6,32.8,29.74,NW,322,0.0,19.0,68,0.00,,---,0.00,VWS V12.07,2013-07-21 13:06:00,
2013-07-21 06:07:00,42.6,32.4,29.74,NW,322,0.0,19.0,67,0.00,,---,0.00,VWS V12.07,2013-07-21 13:07:00,
2013-07-21 06:08:00,42.6,32.0,29.74,NW,322,0.0,19.0,66,0.00,,---,0.00,VWS V12.07,2013-07-21 13:08:00,
2013-07-21 06:10:00,42.6,32.8,29.74,NW,322,0.0,19.0,68,0.00,,---,0.00,VWS V12.07,2013-07-21 13:10:00,
2013-07-21 06:11:00,42.6,32.8,29.74,NW,322,0.0,19.0,68,0.00,,---,0.00,VWS V12.07,2013-07-21 13:11:00,
2013-07-21 06:12:00,42.6,32.8,29.74,NW,322,0.0,19.0,68,0.00,,---,0.00,VWS V12.07,2013-07-21 13:12:00,
2013-07-21 06:14:00,42.6,32.8,29.74,NW,322,0.0,19.0,68,0.00,,---,0.00,VWS V12.07,2013-07-21 13:14:00,
2013-07-21 06:16:00,42.8,33.0,29.74,NW,322,0.0,19.0,68,0.00,,---,0.00,VWS V12.07,2013-07-21 13:16:00,
2013-07-21 06:17:00,42.8,33.3,29.74,NW,322,0.0,19.0,69,0.00,,---,0.00,VWS V12.07,2013-07-21 13:17:00,
2013-07-21 06:19:00,42.9,34.2,29.74,NW,322,0.0,19.0,71,0.00,,---,0.00,VWS V12.07,2013-07-21 13:19:00,
2013-07-21 06:21:00,42.9,33.4,29.74,NW,322,0.0,19.0,69,0.00,,---,0.00,VWS V12.07,2013-07-21 13:21:00,
2013-07-21 06:22:00,43.1,33.3,29.74,NW,322,0.0,19.0,68,0.00,,---,0.00,VWS V12.07,2013-07-21 13:22:00,
2013-07-21 06:23:00,43.1,33.6,29.74,NW,322,0.0,19.0,69,0.00,,---,0.00,VWS V12.07,2013-07-21 13:23:00,
2013-07-21 06:25:00,43.1,33.6,29.74,NW,322,0.0,19.0,69,0.00,,---,0.00,VWS V12.07,2013-07-21 13:25:00,
2013-07-21 06:26:00,43.1,34.0,29.74,NW,322,0.0,19.0,70,0.00,,---,0.00,VWS V12.07,2013-07-21 13:26:00,
2013-07-21 06:28:00,43.1,34.0,29.74,NW,322,0.0,19.0,70,0.00,,---,0.00,VWS V12.07,2013-07-21 13:28:00,
2013-07-21 06:30:00,43.1,34.7,29.74,NW,322,0.0,19.0,72,0.00,,---,0.00,VWS V12.07,2013-07-21 13:30:00,
2013-07-21 06:31:00,43.1,35.0,29.74,NW,322,0.0,19.0,73,0.00,,---,0.00,VWS V12.07,2013-07-21 13:31:00,
2013-07-21 06:33:00,43.2,34.5,29.74,NW,322,0.0,19.0,71,0.00,,---,0.00,VWS V12.07,2013-07-21 13:33:00,
2013-07-21 06:34:00,43.2,34.5,29.74,NW,322,0.0,19.0,71,0.00,,---,0.00,VWS V12.07,2013-07-21 13:34:00,
2013-07-21 06:35:00,43.2,34.5,29.74,NW,322,0.0,19.0,71,0.00,,---,0.00,VWS V12.07,2013-07-21 13:35:00,
2013-07-21 06:36:00,43.2,33.7,29.74,NW,322,0.0,19.0,69,0.00,,---,0.00,VWS V12.07,2013-07-21 13:36:00,
2013-07-21 06:37:00,43.2,33.7,29.74,NW,322,0.0,19.0,69,0.00,,---,0.00,VWS V12.07,2013-07-21 13:37:00,
2013-07-21 06:38:00,43.2,34.1,29.74,NW,322,0.0,19.0,70,0.00,,---,0.00,VWS V12.07,2013-07-21 13:38:00,
2013-07-21 06:39:00,43.3,34.9,29.74,NW,322,0.0,19.0,72,0.00,,---,0.00,VWS V12.07,2013-07-21 13:39:00,
2013-07-21 06:40:00,43.3,34.9,29.74,NW,322,0.0,19.0,72,0.00,,---,0.00,VWS V12.07,2013-07-21 13:40:00,
2013-07-21 06:41:00,43.5,36.5,29.74,NW,322,0.0,19.0,76,0.00,,---,0.00,VWS V12.07,2013-07-21 13:41:00,
2013-07-21 06:43:00,43.6,36.2,29.74,NW,322,0.0,19.0,75,0.00,,---,0.00,VWS V12.07,2013-07-21 13:43:00,
2013-07-21 06:44:00,43.8,36.4,29.74,NW,322,0.0,19.0,75,0.00,,---,0.00,VWS V12.07,2013-07-21 13:44:00,
2013-07-21 06:45:00,43.8,37.4,29.74,NW,322,0.0,19.0,78,0.00,,---,0.00,VWS V12.07,2013-07-21 13:45:00,
2013-07-21 06:47:00,44.1,36.4,29.74,NW,322,0.0,19.0,74,0.00,,---,0.00,VWS V12.07,2013-07-21 13:47:00,
2013-07-21 06:48:00,44.3,36.2,29.74,NW,322,0.0,19.0,73,0.00,,---,0.00,VWS V12.07,2013-07-21 13:48:00,
2013-07-21 06:50:00,44.5,36.4,29.74,NW,322,0.0,19.0,73,0.00,,---,0.00,VWS V12.07,2013-07-21 13:50:00,
2013-07-21 06:51:00,44.6,36.8,29.74,NW,322,0.0,19.0,74,0.00,,---,0.00,VWS V12.07,2013-07-21 13:51:00,
2013-07-21 06:52:00,44.8,36.3,29.74,NW,322,0.0,19.0,72,0.00,,---,0.00,VWS V12.07,2013-07-21 13:52:00,
2013-07-21 06:54:00,44.9,37.8,29.74,NW,322,0.0,19.0,76,0.00,,---,0.00,VWS V12.07,2013-07-21 13:54:00,
2013-07-21 06:55:00,45.1,37.0,29.74,NW,322,0.0,19.0,73,0.00,,---,0.00,VWS V12.07,2013-07-21 13:55:00,
2013-07-21 06:56:00,45.2,36.4,29.74,NW,322,0.0,19.0,71,0.00,,---,0.00,VWS V12.07,2013-07-21 13:56:00,
2013-07-21 06:57:00,45.8,40.3,29.74,NW,322,0.0,19.0,81,0.00,,---,0.00,VWS V12.07,2013-07-21 13:57:00,
2013-07-21 06:59:00,46.0,40.5,29.74,NW,322,0.0,19.0,81,0.00,,---,0.00,VWS V12.07,2013-07-21 13:59:00,
2013-07-21 07:00:00,46.1,40.6,29.73,NW,322,0.0,19.0,81,0.00,,---,0.00,VWS V12.07,2013-07-21 14:00:00,
2013-07-21 07:01:00,46.2,39.7,29.73,NW,322,0.0,19.0,78,0.00,,---,0.00,VWS V12.07,2013-07-21 14:01:00,
2013-07-21 07:03:00,46.4,39.3,29.73,NW,322,0.0,19.0,76,0.00,,---,0.00,VWS V12.07,2013-07-21 14:03:00,
2013-07-21 07:04:00,46.5,38.7,29.73,NW,322,0.0,19.0,74,0.00,,---,0.00,VWS V12.07,2013-07-21 14:04:00,
2013-07-21 07:05:00,46.7,38.9,29.73,NW,322,0.0,19.0,74,0.00,,---,0.00,VWS V12.07,2013-07-21 14:05:00,
2013-07-21 07:06:00,46.8,40.6,29.73,NW,322,0.0,19.0,79,0.00,,---,0.00,VWS V12.07,2013-07-21 14:06:00,
2013-07-21 07:07:00,46.8,40.3,29.73,NW,322,0.0,19.0,78,0.00,,---,0.00,VWS V12.07,2013-07-21 14:07:00,
2013-07-21 07:08:00,47.0,41.2,29.73,NW,322,0.0,19.0,80,0.00,,---,0.00,VWS V12.07,2013-07-21 14:08:00,
2013-07-21 07:10:00,47.3,41.1,29.73,NW,322,0.0,19.0,79,0.00,,---,0.00,VWS V12.07,2013-07-21 14:10:00,
2013-07-21 07:12:00,47.6,41.8,29.73,NW,322,0.0,19.0,80,0.00,,---,0.00,VWS V12.07,2013-07-21 14:12:00,
2013-07-21 07:13:00,48.0,41.8,29.73,NW,322,0.0,19.0,79,0.00,,---,0.00,VWS V12.07,2013-07-21 14:13:00,
2013-07-21 07:15:00,48.5,42.0,29.74,NW,322,0.0,19.0,78,0.00,,---,0.00,VWS V12.07,2013-07-21 14:15:00,
2013-07-21 07:16:00,48.6,42.1,29.74,NW,322,0.0,19.0,78,0.00,,---,0.00,VWS V12.07,2013-07-21 14:16:00,
2013-07-21 07:17:00,48.6,41.7,29.74,NW,322,0.0,19.0,77,0.00,,---,0.00,VWS V12.07,2013-07-21 14:17:00,
2013-07-21 07:18:00,48.8,41.9,29.74,NW,322,0.0,19.0,77,0.00,,---,0.00,VWS V12.07,2013-07-21 14:18:00,
2013-07-21 07:20:00,48.8,41.6,29.74,NW,322,0.0,19.0,76,0.00,,---,0.00,VWS V12.07,2013-07-21 14:20:00,
2013-07-21 07:21:00,49.2,43.0,29.74,NW,322,0.0,19.0,79,0.00,,---,0.00,VWS V12.07,2013-07-21 14:21:00,
2013-07-21 07:23:00,49.5,42.3,29.74,NW,322,0.0,19.0,76,0.00,,---,0.00,VWS V12.07,2013-07-21 14:23:00,
2013-07-21 07:24:00,49.9,43.0,29.74,NW,322,0.0,19.0,77,0.00,,---,0.00,VWS V12.07,2013-07-21 14:24:00,
2013-07-21 07:25:00,50.1,43.5,29.74,NW,322,0.0,19.0,78,0.00,,---,0.00,VWS V12.07,2013-07-21 14:25:00,
2013-07-21 07:26:00,50.2,42.9,29.74,NW,322,0.0,19.0,76,0.00,,---,0.00,VWS V12.07,2013-07-21 14:26:00,
2013-07-21 07:28:00,50.4,43.1,29.74,NW,322,0.0,19.0,76,0.00,,---,0.00,VWS V12.07,2013-07-21 14:28:00,
2013-07-21 07:29:00,50.4,43.1,29.73,NW,322,0.0,19.0,76,0.00,,---,0.00,VWS V12.07,2013-07-21 14:29:00,
2013-07-21 07:31:00,50.7,43.8,29.73,NW,322,0.0,19.0,77,0.00,,---,0.00,VWS V12.07,2013-07-21 14:31:00,
2013-07-21 07:33:00,51.3,43.3,29.73,NW,322,0.0,19.0,74,0.00,,---,0.00,VWS V12.07,2013-07-21 14:33:00,
2013-07-21 07:35:00,51.7,43.0,29.73,NW,322,0.0,19.0,72,0.00,,---,0.00,VWS V12.07,2013-07-21 14:35:00,
2013-07-21 07:36:00,52.0,44.0,29.73,NW,322,0.0,19.0,74,0.00,,---,0.00,VWS V12.07,2013-07-21 14:36:00,
2013-07-21 07:38:00,52.5,44.5,29.73,NW,322,0.0,19.0,74,0.00,,---,0.00,VWS V12.07,2013-07-21 14:38:00,
2013-07-21 07:40:00,52.5,44.5,29.73,NW,322,0.0,19.0,74,0.00,,---,0.00,VWS V12.07,2013-07-21 14:40:00,
2013-07-21 07:42:00,52.6,43.5,29.73,NW,322,0.0,19.0,71,0.00,,---,0.00,VWS V12.07,2013-07-21 14:42:00,
2013-07-21 07:43:00,52.9,43.4,29.73,NW,322,0.0,19.0,70,0.00,,---,0.00,VWS V12.07,2013-07-21 14:43:00,
2013-07-21 07:44:00,53.2,43.7,29.73,NW,322,0.0,19.0,70,0.00,,---,0.00,VWS V12.07,2013-07-21 14:44:00,
2013-07-21 07:45:00,53.5,44.0,29.72,NW,322,0.0,19.0,70,0.00,,---,0.00,VWS V12.07,2013-07-21 14:45:00,
2013-07-21 07:47:00,53.9,44.3,29.72,NW,322,0.0,19.0,70,0.00,,---,0.00,VWS V12.07,2013-07-21 14:47:00,
2013-07-21 07:49:00,54.2,44.3,29.72,NW,322,0.0,19.0,69,0.00,,---,0.00,VWS V12.07,2013-07-21 14:49:00,
2013-07-21 07:51:00,54.7,44.4,29.72,NW,322,0.0,19.0,68,0.00,,---,0.00,VWS V12.07,2013-07-21 14:51:00,
2013-07-21 07:52:00,55.1,44.7,29.72,NW,322,0.0,19.0,68,0.00,,---,0.00,VWS V12.07,2013-07-21 14:52:00,
2013-07-21 07:53:00,55.1,44.7,29.72,NW,322,0.0,19.0,68,0.00,,---,0.00,VWS V12.07,2013-07-21 14:53:00,
2013-07-21 07:54:00,55.3,44.5,29.72,NW,322,0.0,19.0,67,0.00,,---,0.00,VWS V12.07,2013-07-21 14:54:00,
2013-07-21 07:56:00,55.7,44.9,29.72,NW,322,0.0,19.0,67,0.00,,---,0.00,VWS V12.07,2013-07-21 14:56:00,
2013-07-21 07:57:00,55.9,45.1,29.72,NW,322,0.0,19.0,67,0.00,,---,0.00,VWS V12.07,2013-07-21 14:57:00,
2013-07-21 07:58:00,56.2,44.6,29.72,NW,322,0.0,19.0,65,0.00,,---,0.00,VWS V12.07,2013-07-21 14:58:00,
2013-07-21 07:59:00,56.2,44.6,29.71,NW,322,0.0,19.0,65,0.00,,---,0.00,VWS V12.07,2013-07-21 14:59:00,
2013-07-21 08:01:00,56.6,45.0,29.71,NW,322,0.0,19.0,65,0.00,,---,0.00,VWS V12.07,2013-07-21 15:01:00,
2013-07-21 08:02:00,56.7,45.1,29.71,NW,322,0.0,19.0,65,0.00,,---,0.00,VWS V12.07,2013-07-21 15:02:00,
2013-07-21 08:04:00,56.7,44.3,29.71,NW,322,0.0,19.0,63,0.00,,---,0.00,VWS V12.07,2013-07-21 15:04:00,
2013-07-21 08:05:00,56.7,43.8,29.71,NW,322,0.0,19.0,62,0.00,,---,0.00,VWS V12.07,2013-07-21 15:05:00,
2013-07-21 08:07:00,57.0,44.5,29.71,NW,322,0.0,19.0,63,0.00,,---,0.00,VWS V12.07,2013-07-21 15:07:00,
2013-07-21 08:08:00,57.2,44.3,29.71,NW,322,0.0,19.0,62,0.00,,---,0.00,VWS V12.07,2013-07-21 15:08:00,
2013-07-21 08:09:00,57.3,44.4,29.71,NW,322,0.0,19.0,62,0.00,,---,0.00,VWS V12.07,2013-07-21 15:09:00,
2013-07-21 08:11:00,57.6,44.7,29.71,NW,322,0.0,19.0,62,0.00,,---,0.00,VWS V12.07,2013-07-21 15:11:00,
2013-07-21 08:12:00,58.0,45.1,29.71,NW,322,0.0,19.0,62,0.00,,---,0.00,VWS V12.07,2013-07-21 15:12:00,
2013-07-21 08:13:00,58.1,44.7,29.71,NW,322,0.0,19.0,61,0.00,,---,0.00,VWS V12.07,2013-07-21 15:13:00,
2013-07-21 08:15:00,58.4,45.0,29.72,NW,322,0.0,19.0,61,0.00,,---,0.00,VWS V12.07,2013-07-21 15:15:00,
2013-07-21 08:16:00,58.4,45.0,29.72,NW,322,0.0,19.0,61,0.00,,---,0.00,VWS V12.07,2013-07-21 15:16:00,
2013-07-21 08:17:00,58.6,44.8,29.72,NW,322,0.0,19.0,60,0.00,,---,0.00,VWS V12.07,2013-07-21 15:17:00,
2013-07-21 08:18:00,58.7,44.9,29.72,NW,322,0.0,19.0,60,0.00,,---,0.00,VWS V12.07,2013-07-21 15:18:00,
2013-07-21 08:21:00,59.3,44.5,29.72,NW,322,0.0,19.0,58,0.00,,---,0.00,VWS V12.07,2013-07-21 15:21:00,
2013-07-21 08:22:00,59.6,44.8,29.72,NW,322,0.0,19.0,58,0.00,,---,0.00,VWS V12.07,2013-07-21 15:22:00,
2013-07-21 08:23:00,59.6,44.8,29.72,NW,322,0.0,19.0,58,0.00,,---,0.00,VWS V12.07,2013-07-21 15:23:00,
2013-07-21 08:26:00,60.1,44.4,29.72,NW,322,0.0,19.0,56,0.00,,---,0.00,VWS V12.07,2013-07-21 15:26:00,
2013-07-21 08:27:00,60.2,44.5,29.72,NW,322,0.0,19.0,56,0.00,,---,0.00,VWS V12.07,2013-07-21 15:27:00,
2013-07-21 08:28:00,60.4,44.7,29.72,NW,322,0.0,19.0,56,0.00,,---,0.00,VWS V12.07,2013-07-21 15:28:00,
2013-07-21 08:31:00,61.0,44.2,29.71,NW,322,0.0,19.0,54,0.00,,---,0.00,VWS V12.07,2013-07-21 15:31:00,
2013-07-21 08:33:00,61.3,44.5,29.71,NW,322,0.0,19.0,54,0.00,,---,0.00,VWS V12.07,2013-07-21 15:33:00,
2013-07-21 08:36:00,61.8,45.5,29.71,NW,322,0.0,19.0,55,0.00,,---,0.00,VWS V12.07,2013-07-21 15:36:00,
2013-07-21 08:38:00,62.1,44.8,29.71,NW,322,0.0,19.0,53,0.00,,---,0.00,VWS V12.07,2013-07-21 15:38:00,
2013-07-21 08:39:00,62.3,45.0,29.71,NW,322,0.0,19.0,53,0.00,,---,0.00,VWS V12.07,2013-07-21 15:39:00,
2013-07-21 08:41:00,62.9,44.5,29.71,NW,322,0.0,19.0,51,0.00,,---,0.00,VWS V12.07,2013-07-21 15:41:00,
2013-07-21 08:43:00,63.5,44.0,29.71,NW,322,1.0,19.0,49,0.00,,---,0.00,VWS V12.07,2013-07-21 15:43:00,
2013-07-21 08:44:00,63.7,42.5,29.71,NW,322,0.0,19.0,46,0.00,,---,0.00,VWS V12.07,2013-07-21 15:44:00,
2013-07-21 08:46:00,64.7,44.0,29.70,NW,322,0.0,19.0,47,0.00,,---,0.00,VWS V12.07,2013-07-21 15:46:00,
2013-07-21 08:48:00,65.3,43.4,29.70,NW,320,0.0,19.0,45,0.00,,---,0.00,VWS V12.07,2013-07-21 15:48:00,
2013-07-21 08:49:00,65.5,43.6,29.70,NW,320,0.0,19.0,45,0.00,,---,0.00,VWS V12.07,2013-07-21 15:49:00,
2013-07-21 08:50:00,66.0,43.5,29.70,NW,308,1.0,19.0,44,0.00,,---,0.00,VWS V12.07,2013-07-21 15:50:00,
2013-07-21 08:51:00,66.6,43.4,29.70,WNW,301,0.0,19.0,43,0.00,,---,0.00,VWS V12.07,2013-07-21 15:51:00,
2013-07-21 08:54:00,67.3,44.7,29.70,SW,215,5.0,19.0,44,0.00,,---,0.00,VWS V12.07,2013-07-21 15:54:00,
2013-07-21 08:55:00,67.4,43.5,29.70,SW,215,2.0,19.0,42,0.00,,---,0.00,VWS V12.07,2013-07-21 15:55:00,
2013-07-21 08:57:00,67.8,43.9,29.70,WSW,254,2.0,19.0,42,0.00,,---,0.00,VWS V12.07,2013-07-21 15:57:00,
2013-07-21 08:59:00,68.1,43.5,29.69,South,188,5.0,19.0,41,0.00,,---,0.00,VWS V12.07,2013-07-21 15:59:00,
2013-07-21 09:00:00,68.1,44.2,29.69,South,191,1.0,19.0,42,0.00,,---,0.00,VWS V12.07,2013-07-21 16:00:00,
2013-07-21 09:02:00,68.6,44.0,29.69,SSW,195,5.0,19.0,41,0.00,,---,0.00,VWS V12.07,2013-07-21 16:02:00,
2013-07-21 09:04:00,68.8,42.9,29.69,SSW,198,2.0,19.0,39,0.00,,---,0.00,VWS V12.07,2013-07-21 16:04:00,
2013-07-21 09:05:00,68.9,43.0,29.69,SSW,198,1.0,19.0,39,0.00,,---,0.00,VWS V12.07,2013-07-21 16:05:00,
2013-07-21 09:07:00,69.1,42.5,29.69,SSW,198,0.0,19.0,38,0.00,,---,0.00,VWS V12.07,2013-07-21 16:07:00,
2013-07-21 09:09:00,69.4,43.4,29.69,SSW,195,2.0,19.0,39,0.00,,---,0.00,VWS V12.07,2013-07-21 16:09:00,
2013-07-21 09:10:00,69.4,42.0,29.69,SSW,192,3.0,19.0,37,0.00,,---,0.00,VWS V12.07,2013-07-21 16:10:00,
2013-07-21 09:12:00,69.6,41.5,29.69,South,191,2.0,19.0,36,0.00,,---,0.00,VWS V12.07,2013-07-21 16:12:00,
2013-07-21 09:14:00,69.9,42.5,29.69,WNW,289,3.0,19.0,37,0.00,,---,0.00,VWS V12.07,2013-07-21 16:14:00,
2013-07-21 09:15:00,69.9,42.5,29.73,South,179,5.0,19.0,37,0.00,,---,0.00,VWS V12.07,2013-07-21 16:15:00,
2013-07-21 09:16:00,70.1,40.5,29.73,South,184,5.0,19.0,34,0.00,,---,0.00,VWS V12.07,2013-07-21 16:16:00,
2013-07-21 09:18:00,70.3,42.1,29.73,South,184,0.0,19.0,36,0.00,,---,0.00,VWS V12.07,2013-07-21 16:18:00,
2013-07-21 09:20:00,70.4,41.5,29.73,South,184,0.0,19.0,35,0.00,,---,0.00,VWS V12.07,2013-07-21 16:20:00,
2013-07-21 09:22:00,70.9,42.6,29.73,South,186,0.0,19.0,36,0.00,,---,0.00,VWS V12.07,2013-07-21 16:22:00,
2013-07-21 09:23:00,71.1,40.6,29.73,South,191,0.0,19.0,33,0.00,,---,0.00,VWS V12.07,2013-07-21 16:23:00,
2013-07-21 09:24:00,71.1,40.6,29.73,South,191,4.0,19.0,33,0.00,,---,0.00,VWS V12.07,2013-07-21 16:24:00,
2013-07-21 09:25:00,71.3,40.7,29.73,South,188,2.0,19.0,33,0.00,,---,0.00,VWS V12.07,2013-07-21 16:25:00,
2013-07-21 09:27:00,71.6,40.2,29.73,South,191,5.0,19.0,32,0.00,,---,0.00,VWS V12.07,2013-07-21 16:27:00,
2013-07-21 09:29:00,71.5,40.1,29.73,South,188,7.0,19.0,32,0.00,,---,0.00,VWS V12.07,2013-07-21 16:29:00,
2013-07-21 09:31:00,71.3,37.4,29.72,South,179,4.0,19.0,29,0.00,,---,0.00,VWS V12.07,2013-07-21 16:31:00,
2013-07-21 09:32:00,71.5,39.3,29.72,South,182,1.0,19.0,31,0.00,,---,0.00,VWS V12.07,2013-07-21 16:32:00,
2013-07-21 09:34:00,71.8,40.4,29.72,South,184,0.0,19.0,32,0.00,,---,0.00,VWS V12.07,2013-07-21 16:34:00,
2013-07-21 09:36:00,72.3,40.0,29.72,South,182,5.0,19.0,31,0.00,,---,0.00,VWS V12.07,2013-07-21 16:36:00,
2013-07-21 09:37:00,72.5,39.3,29.72,South,184,0.0,19.0,30,0.00,,---,0.00,VWS V12.07,2013-07-21 16:37:00,
2013-07-21 09:39:00,73.0,39.8,29.72,South,184,0.0,19.0,30,0.00,,---,0.00,VWS V12.07,2013-07-21 16:39:00,
2013-07-21 09:40:00,73.3,40.9,29.72,South,184,0.0,19.0,31,0.00,,---,0.00,VWS V12.07,2013-07-21 16:40:00,
2013-07-21 09:41:00,73.5,41.0,29.72,South,185,4.0,19.0,31,0.00,,---,0.00,VWS V12.07,2013-07-21 16:41:00,
2013-07-21 09:43:00,73.5,38.4,29.72,South,189,1.0,19.0,28,0.00,,---,0.00,VWS V12.07,2013-07-21 16:43:00,
2013-07-21 09:44:00,73.5,38.4,29.72,South,189,2.0,19.0,28,0.00,,---,0.00,VWS V12.07,2013-07-21 16:44:00,
2013-07-21 09:45:00,73.9,39.7,29.71,SSW,192,0.0,19.0,29,0.00,,---,0.00,VWS V12.07,2013-07-21 16:45:00,
2013-07-21 09:46:00,74.0,39.8,29.71,SSW,192,2.0,19.0,29,0.00,,---,0.00,VWS V12.07,2013-07-21 16:46:00,
2013-07-21 09:49:00,74.4,39.2,29.71,SSW,192,0.0,19.0,28,0.00,,---,0.00,VWS V12.07,2013-07-21 16:49:00,
2013-07-21 09:51:00,74.6,38.5,29.71,SSW,193,5.0,19.0,27,0.00,,---,0.00,VWS V12.07,2013-07-21 16:51:00,
2013-07-21 09:52:00,74.4,37.3,29.71,South,184,2.0,19.0,26,0.00,,---,0.00,VWS V12.07,2013-07-21 16:52:00,
2013-07-21 09:54:00,74.7,37.6,29.71,South,186,2.0,19.0,26,0.00,,---,0.00,VWS V12.07,2013-07-21 16:54:00,
2013-07-21 09:56:00,74.7,38.5,29.71,SSW,205,1.0,19.0,27,0.00,,---,0.00,VWS V12.07,2013-07-21 16:56:00,
2013-07-21 09:57:00,74.6,37.5,29.71,South,179,5.0,19.0,26,0.00,,---,0.00,VWS V12.07,2013-07-21 16:57:00,
2013-07-21 10:00:00,74.4,37.3,29.70,South,191,5.0,19.0,26,0.00,,---,0.00,VWS V12.07,2013-07-21 17:00:00,
2013-07-21 10:01:00,74.4,37.3,29.70,South,184,8.0,19.0,26,0.00,,---,0.00,VWS V12.07,2013-07-21 17:01:00,
2013-07-21 10:02:00,74.4,37.3,29.70,South,188,2.0,19.0,26,0.00,,---,0.00,VWS V12.07,2013-07-21 17:02:00,
2013-07-21 10:05:00,75.3,39.0,29.70,SSW,192,2.0,19.0,27,0.00,,---,0.00,VWS V12.07,2013-07-21 17:05:00,
2013-07-21 10:06:00,75.4,38.2,29.70,SSE,167,5.0,19.0,26,0.00,,---,0.00,VWS V12.07,2013-07-21 17:06:00,
2013-07-21 10:07:00,75.4,38.2,29.70,South,189,6.0,19.0,26,0.00,,---,0.00,VWS V12.07,2013-07-21 17:07:00,
2013-07-21 10:10:00,75.6,37.3,29.70,South,189,5.0,19.0,25,0.00,,---,0.00,VWS V12.07,2013-07-21 17:10:00,
2013-07-21 10:11:00,75.6,37.3,29.70,South,189,7.0,19.0,25,0.00,,---,0.00,VWS V12.07,2013-07-21 17:11:00,
2013-07-21 10:12:00,75.8,37.5,29.70,South,189,1.0,19.0,25,0.00,,---,0.00,VWS V12.07,2013-07-21 17:12:00,
2013-07-21 10:13:00,75.8,37.5,29.70,South,191,5.0,19.0,25,0.00,,---,0.00,VWS V12.07,2013-07-21 17:13:00,
2013-07-21 10:16:00,76.3,38.9,29.72,South,185,5.0,19.0,26,0.00,,---,0.00,VWS V12.07,2013-07-21 17:16:00,
2013-07-21 10:17:00,76.3,36.9,29.72,South,185,0.0,19.0,24,0.00,,---,0.00,VWS V12.07,2013-07-21 17:17:00,
2013-07-21 10:18:00,76.5,36.0,29.72,South,185,0.0,19.0,23,0.00,,---,0.00,VWS V12.07,2013-07-21 17:18:00,
2013-07-21 10:21:00,77.0,34.1,29.72,South,189,7.0,19.0,21,0.00,,---,0.00,VWS V12.07,2013-07-21 17:21:00,
2013-07-21 10:22:00,76.8,34.0,29.72,South,184,6.0,19.0,21,0.00,,---,0.00,VWS V12.07,2013-07-21 17:22:00,
2013-07-21 10:23:00,76.8,36.2,29.72,South,191,10.0,19.0,23,0.00,,---,0.00,VWS V12.07,2013-07-21 17:23:00,
2013-07-21 10:26:00,76.7,35.0,29.72,WNW,294,3.0,19.0,22,0.00,,---,0.00,VWS V12.07,2013-07-21 17:26:00,
2013-07-21 10:27:00,76.8,35.1,29.72,NW,304,2.0,19.0,22,0.00,,---,0.00,VWS V12.07,2013-07-21 17:27:00,
2013-07-21 10:28:00,77.2,36.6,29.72,SSW,205,3.0,19.0,23,0.00,,---,0.00,VWS V12.07,2013-07-21 17:28:00,
2013-07-21 10:31:00,77.7,34.7,29.71,SSW,213,0.0,19.0,21,0.00,,---,0.00,VWS V12.07,2013-07-21 17:31:00,
2013-07-21 10:33:00,77.7,37.0,29.71,South,181,6.0,19.0,23,0.00,,---,0.00,VWS V12.07,2013-07-21 17:33:00,
2013-07-21 10:34:00,77.7,37.0,29.71,South,176,2.0,19.0,23,0.00,,---,0.00,VWS V12.07,2013-07-21 17:34:00,
2013-07-21 10:36:00,78.1,37.3,29.71,South,178,0.0,19.0,23,0.00,,---,0.00,VWS V12.07,2013-07-21 17:36:00,
2013-07-21 10:38:00,78.6,37.7,29.71,South,178,3.0,19.0,23,0.00,,---,0.00,VWS V12.07,2013-07-21 17:38:00,
2013-07-21 10:39:00,78.6,36.6,29.71,South,181,3.0,19.0,22,0.00,,---,0.00,VWS V12.07,2013-07-21 17:39:00,
2013-07-21 10:41:00,78.5,37.7,29.71,South,178,3.0,19.0,23,0.00,,---,0.00,VWS V12.07,2013-07-21 17:41:00,
2013-07-21 10:43:00,78.6,36.6,29.71,South,188,5.0,19.0,22,0.00,,---,0.00,VWS V12.07,2013-07-21 17:43:00,
2013-07-21 10:44:00,78.6,37.7,29.71,South,189,4.0,19.0,23,0.00,,---,0.00,VWS V12.07,2013-07-21 17:44:00,
2013-07-21 10:47:00,79.0,35.8,29.70,South,182,2.0,19.0,21,0.00,,---,0.00,VWS V12.07,2013-07-21 17:47:00,
2013-07-21 10:49:00,79.2,37.1,29.70,South,182,4.0,19.0,22,0.00,,---,0.00,VWS V12.07,2013-07-21 17:49:00,
2013-07-21 10:50:00,79.4,36.1,29.70,SSW,192,0.0,19.0,21,0.00,,---,0.00,VWS V12.07,2013-07-21 17:50:00,
2013-07-21 10:53:00,79.9,38.8,29.70,South,186,0.0,19.0,23,0.00,,---,0.00,VWS V12.07,2013-07-21 17:53:00,
2013-07-21 10:54:00,80.3,38.0,29.70,South,186,0.0,19.0,22,0.00,,---,0.00,VWS V12.07,2013-07-21 17:54:00,
2013-07-21 10:55:00,80.3,38.0,29.70,South,185,5.0,19.0,22,0.00,,---,0.00,VWS V12.07,2013-07-21 17:55:00,
2013-07-21 10:58:00,80.3,36.8,29.70,South,184,5.0,19.0,21,0.00,,---,0.00,VWS V12.07,2013-07-21 17:58:00,
2013-07-21 10:59:00,80.5,37.0,29.69,West,267,0.0,19.0,21,0.00,,---,0.00,VWS V12.07,2013-07-21 17:59:00,
2013-07-21 11:00:00,80.7,34.7,29.69,SSW,193,6.0,19.0,19,0.00,,---,0.00,VWS V12.07,2013-07-21 18:00:00,
2013-07-21 11:03:00,80.7,37.2,29.69,SSW,202,0.0,19.0,21,0.00,,---,0.00,VWS V12.07,2013-07-21 18:03:00,
2013-07-21 11:05:00,80.7,34.7,29.69,SSW,196,2.0,19.0,19,0.00,,---,0.00,VWS V12.07,2013-07-21 18:05:00,
2013-07-21 11:06:00,80.9,33.5,29.69,SSW,196,2.0,19.0,18,0.00,,---,0.00,VWS V12.07,2013-07-21 18:06:00,
2013-07-21 11:09:00,80.7,33.3,29.69,SSW,192,0.0,19.0,18,0.00,,---,0.00,VWS V12.07,2013-07-21 18:09:00,
2013-07-21 11:10:00,80.9,36.1,29.69,South,191,4.0,19.0,20,0.00,,---,0.00,VWS V12.07,2013-07-21 18:10:00,
2013-07-21 11:11:00,81.2,35.1,29.69,South,191,0.0,19.0,19,0.00,,---,0.00,VWS V12.07,2013-07-21 18:11:00,
2013-07-21 11:14:00,81.8,35.5,29.69,SSW,195,2.0,19.0,19,0.00,,---,0.00,VWS V12.07,2013-07-21 18:14:00,
2013-07-21 11:15:00,81.6,35.4,29.70,South,182,8.0,19.0,19,0.00,,---,0.00,VWS V12.07,2013-07-21 18:15:00,
2013-07-21 11:16:00,81.6,32.6,29.70,South,179,3.0,19.0,17,0.00,,---,0.00,VWS V12.07,2013-07-21 18:16:00,
2013-07-21 11:20:00,82.0,32.9,29.70,SSW,192,2.0,19.0,17,0.00,,---,0.00,VWS V12.07,2013-07-21 18:20:00,
2013-07-21 11:21:00,82.4,34.7,29.70,South,191,0.0,19.0,18,0.00,,---,0.00,VWS V12.07,2013-07-21 18:21:00,
2013-07-21 11:22:00,82.8,35.0,29.70,South,191,5.0,19.0,18,0.00,,---,0.00,VWS V12.07,2013-07-21 18:22:00,
2013-07-21 11:25:00,83.4,32.5,29.70,SSW,198,0.0,19.0,16,0.00,,---,0.00,VWS V12.07,2013-07-21 18:25:00,
2013-07-21 11:26:00,83.8,37.2,29.70,South,176,5.0,19.0,19,0.00,,---,0.00,VWS V12.07,2013-07-21 18:26:00,
2013-07-21 11:28:00,84.0,34.5,29.70,NW,315,5.0,19.0,17,0.00,,---,0.00,VWS V12.07,2013-07-21 18:28:00,
2013-07-21 11:30:00,84.5,35.0,29.69,NW,320,0.0,19.0,17,0.00,,---,0.00,VWS V12.07,2013-07-21 18:30:00,
2013-07-21 11:31:00,84.7,35.1,29.69,NW,320,6.0,19.0,17,0.00,,---,0.00,VWS V12.07,2013-07-21 18:31:00,
2013-07-21 11:32:00,85.1,35.4,29.69,NW,320,0.0,19.0,17,0.00,,---,0.00,VWS V12.07,2013-07-21 18:32:00,
2013-07-21 11:33:00,85.3,34.1,29.69,NW,320,0.0,19.0,16,0.00,,---,0.00,VWS V12.07,2013-07-21 18:33:00,
2013-07-21 11:35:00,85.3,34.1,29.69,South,172,2.0,19.0,16,0.00,,---,0.00,VWS V12.07,2013-07-21 18:35:00,
2013-07-21 11:36:00,84.9,30.4,29.69,South,188,10.0,19.0,14,0.00,,---,0.00,VWS V12.07,2013-07-21 18:36:00,
2013-07-21 11:37:00,84.5,30.1,29.69,South,186,5.0,19.0,14,0.00,,---,0.00,VWS V12.07,2013-07-21 18:37:00,
2013-07-21 11:38:00,84.3,31.7,29.69,South,191,5.0,19.0,15,0.00,,---,0.00,VWS V12.07,2013-07-21 18:38:00,
2013-07-21 11:39:00,84.1,31.5,29.69,South,179,5.0,19.0,15,0.00,,---,0.00,VWS V12.07,2013-07-21 18:39:00,
2013-07-21 11:40:00,84.3,31.7,29.69,NW,312,0.0,19.0,15,0.00,,---,0.00,VWS V12.07,2013-07-21 18:40:00,
2013-07-21 11:42:00,84.3,31.7,29.69,South,188,4.0,19.0,15,0.00,,---,0.00,VWS V12.07,2013-07-21 18:42:00,
2013-07-21 11:44:00,84.5,35.0,29.69,South,185,7.0,19.0,17,0.00,,---,0.00,VWS V12.07,2013-07-21 18:44:00,
2013-07-21 11:45:00,84.9,35.3,29.69,SE,124,1.0,19.0,17,0.00,,---,0.00,VWS V12.07,2013-07-21 18:45:00,
2013-07-21 11:47:00,84.9,36.7,29.69,South,188,4.0,19.0,18,0.00,,---,0.00,VWS V12.07,2013-07-21 18:47:00,
2013-07-21 11:48:00,84.9,35.3,29.69,South,181,0.0,19.0,17,0.00,,---,0.00,VWS V12.07,2013-07-21 18:48:00,
2013-07-21 11:49:00,85.3,35.6,29.69,SSW,200,5.0,19.0,17,0.00,,---,0.00,VWS V12.07,2013-07-21 18:49:00,
2013-07-21 11:50:00,85.1,35.4,29.69,SSW,196,7.0,19.0,17,0.00,,---,0.00,VWS V12.07,2013-07-21 18:50:00,
2013-07-21 11:51:00,85.1,35.4,29.69,South,189,2.0,19.0,17,0.00,,---,0.00,VWS V12.07,2013-07-21 18:51:00,
2013-07-21 11:52:00,85.3,35.6,29.69,South,191,2.0,19.0,17,0.00,,---,0.00,VWS V12.07,2013-07-21 18:52:00,
2013-07-21 11:53:00,85.3,34.1,29.69,SSW,198,0.0,19.0,16,0.00,,---,0.00,VWS V12.07,2013-07-21 18:53:00,
2013-07-21 11:55:00,86.1,36.2,29.69,West,267,2.0,19.0,17,0.00,,---,0.00,VWS V12.07,2013-07-21 18:55:00,
2013-07-21 11:56:00,86.3,31.5,29.69,NW,318,3.0,19.0,14,0.00,,---,0.00,VWS V12.07,2013-07-21 18:56:00,
2013-07-21 11:57:00,86.5,31.7,29.69,NW,318,0.0,19.0,14,0.00,,---,0.00,VWS V12.07,2013-07-21 18:57:00,
2013-07-21 11:58:00,86.7,31.9,29.69,NW,318,0.0,19.0,14,0.00,,---,0.00,VWS V12.07,2013-07-21 18:58:00,
2013-07-21 12:00:00,87.2,32.3,29.68,NNW,328,2.0,19.0,14,0.00,,---,0.00,VWS V12.07,2013-07-21 19:00:00,
2013-07-21 12:01:00,87.2,32.3,29.68,NNW,328,1.0,19.0,14,0.00,,---,0.00,VWS V12.07,2013-07-21 19:01:00,
2013-07-21 12:02:00,87.8,36.1,29.68,SSW,212,5.0,19.0,16,0.00,,---,0.00,VWS V12.07,2013-07-21 19:02:00,
2013-07-21 12:03:00,87.6,35.9,29.68,South,178,7.0,19.0,16,0.00,,---,0.00,VWS V12.07,2013-07-21 19:03:00,
2013-07-21 12:05:00,87.8,32.7,29.68,South,181,0.0,19.0,14,0.00,,---,0.00,VWS V12.07,2013-07-21 19:05:00,
2013-07-21 12:06:00,87.8,28.9,29.68,South,189,2.0,19.0,12,0.00,,---,0.00,VWS V12.07,2013-07-21 19:06:00,
2013-07-21 12:08:00,88.2,31.2,29.68,NW,326,0.0,19.0,13,0.00,,---,0.00,VWS V12.07,2013-07-21 19:08:00,
2013-07-21 12:10:00,88.2,27.1,29.68,WSW,254,2.0,19.0,11,0.00,,---,0.00,VWS V12.07,2013-07-21 19:10:00,
2013-07-21 12:11:00,88.2,27.1,29.68,SSW,198,2.0,19.0,11,0.00,,---,0.00,VWS V12.07,2013-07-21 19:11:00,
2013-07-21 12:13:00,88.2,29.2,29.68,SSW,196,1.0,19.0,12,0.00,,---,0.00,VWS V12.07,2013-07-21 19:13:00,
2013-07-21 12:14:00,88.2,31.2,29.68,SSW,206,0.0,19.0,13,0.00,,---,0.00,VWS V12.07,2013-07-21 19:14:00,
2013-07-21 12:15:00,88.2,31.2,29.69,WNW,288,7.0,19.0,13,0.00,,---,0.00,VWS V12.07,2013-07-21 19:15:00,
2013-07-21 12:16:00,88.4,31.4,29.69,NNW,328,0.0,19.0,13,0.00,,---,0.00,VWS V12.07,2013-07-21 19:16:00,
2013-07-21 12:18:00,88.8,27.6,29.69,NNW,328,0.0,19.0,11,0.00,,---,0.00,VWS V12.07,2013-07-21 19:18:00,
2013-07-21 12:19:00,89.0,27.7,29.69,NW,319,2.0,19.0,11,0.00,,---,0.00,VWS V12.07,2013-07-21 19:19:00,
2013-07-21 12:21:00,89.0,27.7,29.69,South,191,0.0,19.0,11,0.00,,---,0.00,VWS V12.07,2013-07-21 19:21:00,
2013-07-21 12:22:00,89.3,28.0,29.69,South,191,0.0,19.0,11,0.00,,---,0.00,VWS V12.07,2013-07-21 19:22:00,
2013-07-21 12:23:00,89.7,28.3,29.69,NW,306,0.0,19.0,11,0.00,,---,0.00,VWS V12.07,2013-07-21 19:23:00,
2013-07-21 12:24:00,89.5,28.1,29.69,SSW,202,2.0,19.0,11,0.00,,---,0.00,VWS V12.07,2013-07-21 19:24:00,
2013-07-21 12:26:00,89.7,26.0,29.69,NW,323,1.0,19.0,10,0.00,,---,0.00,VWS V12.07,2013-07-21 19:26:00,
2013-07-21 12:27:00,89.9,23.6,29.69,NW,322,0.0,19.0,9,0.00,,---,0.00,VWS V12.07,2013-07-21 19:27:00,
2013-07-21 12:29:00,89.9,26.1,29.69,West,265,3.0,19.0,10,0.00,,---,0.00,VWS V12.07,2013-07-21 19:29:00,
2013-07-21 12:31:00,89.7,23.4,29.68,SSW,193,2.0,19.0,9,0.00,,---,0.00,VWS V12.07,2013-07-21 19:31:00,
2013-07-21 12:32:00,89.9,26.1,29.68,SSW,196,1.0,19.0,10,0.00,,---,0.00,VWS V12.07,2013-07-21 19:32:00,
2013-07-21 12:34:00,89.9,26.1,29.68,SSW,199,2.0,19.0,10,0.00,,---,0.00,VWS V12.07,2013-07-21 19:34:00,
2013-07-21 12:35:00,90.1,26.3,29.68,SSW,199,1.0,19.0,10,0.00,,---,0.00,VWS V12.07,2013-07-21 19:35:00,
2013-07-21 12:36:00,90.1,26.3,29.68,SSW,198,1.0,19.0,10,0.00,,---,0.00,VWS V12.07,2013-07-21 19:36:00,
2013-07-21 12:38:00,90.3,26.4,29.68,WNW,299,0.0,19.0,10,0.00,,---,0.00,VWS V12.07,2013-07-21 19:38:00,
2013-07-21 12:39:00,90.5,26.6,29.68,WNW,302,2.0,19.0,10,0.00,,---,0.00,VWS V12.07,2013-07-21 19:39:00,
2013-07-21 12:40:00,90.7,26.7,29.68,NW,309,0.0,19.0,10,0.00,,---,0.00,VWS V12.07,2013-07-21 19:40:00,
2013-07-21 12:41:00,91.0,27.0,29.68,NW,322,2.0,19.0,10,0.00,,---,0.00,VWS V12.07,2013-07-21 19:41:00,
2013-07-21 12:43:00,91.6,24.9,29.68,NW,322,0.0,19.0,9,0.00,,---,0.00,VWS V12.07,2013-07-21 19:43:00,
2013-07-21 12:44:00,91.6,27.4,29.66,SSW,213,7.0,19.0,10,0.00,,---,0.00,VWS V12.07,2013-07-21 19:44:00,
2013-07-21 12:45:00,91.2,27.1,29.66,South,178,3.0,19.0,10,0.00,,---,0.00,VWS V12.07,2013-07-21 19:45:00,
2013-07-21 12:47:00,91.6,24.9,29.66,NW,311,0.0,19.0,9,0.00,,---,0.00,VWS V12.07,2013-07-21 19:47:00,
2013-07-21 12:49:00,91.8,25.0,29.66,South,191,2.0,19.0,9,0.00,,---,0.00,VWS V12.07,2013-07-21 19:49:00,
2013-07-21 12:50:00,91.6,24.9,29.66,NNW,328,0.0,19.0,9,0.00,,---,0.00,VWS V12.07,2013-07-21 19:50:00,
2013-07-21 12:52:00,91.8,25.0,29.66,NW,305,2.0,19.0,9,0.00,,---,0.00,VWS V12.07,2013-07-21 19:52:00,
2013-07-21 12:54:00,92.3,25.4,29.66,NNW,332,3.0,19.0,9,0.00,,---,0.00,VWS V12.07,2013-07-21 19:54:00,
2013-07-21 12:55:00,92.3,25.4,29.66,NNW,333,0.0,19.0,9,0.00,,---,0.00,VWS V12.07,2013-07-21 19:55:00,
2013-07-21 12:57:00,91.6,24.9,29.66,South,178,2.0,19.0,9,0.00,,---,0.00,VWS V12.07,2013-07-21 19:57:00,
2013-07-21 13:00:00,91.2,27.1,29.66,SSW,196,5.0,19.0,10,0.00,,---,0.00,VWS V12.07,2013-07-21 20:00:00,
2013-07-21 13:03:00,90.3,23.9,29.66,SSE,150,2.0,19.0,9,0.00,,---,0.00,VWS V12.07,2013-07-21 20:03:00,
2013-07-21 13:05:00,89.7,23.4,29.66,South,176,5.0,19.0,9,0.00,,---,0.00,VWS V12.07,2013-07-21 20:05:00,
2013-07-21 13:06:00,89.9,23.6,29.66,South,186,3.0,19.0,9,0.00,,---,0.00,VWS V12.07,2013-07-21 20:06:00,
2013-07-21 13:08:00,90.1,23.7,29.66,WNW,301,6.0,19.0,9,0.00,,---,0.00,VWS V12.07,2013-07-21 20:08:00,
2013-07-21 13:10:00,90.3,21.1,29.66,NW,304,0.0,19.0,8,0.00,,---,0.00,VWS V12.07,2013-07-21 20:10:00,
2013-07-21 13:11:00,90.5,21.2,29.66,NW,304,0.0,19.0,8,0.00,,---,0.00,VWS V12.07,2013-07-21 20:11:00,
2013-07-21 13:14:00,91.4,24.7,29.66,NW,312,0.0,19.0,9,0.00,,---,0.00,VWS V12.07,2013-07-21 20:14:00,
2013-07-21 13:15:00,91.4,21.9,29.67,NW,311,4.0,19.0,8,0.00,,---,0.00,VWS V12.07,2013-07-21 20:15:00,
2013-07-21 13:16:00,91.6,22.0,29.67,NW,311,2.0,19.0,8,0.00,,---,0.00,VWS V12.07,2013-07-21 20:16:00,
2013-07-21 13:19:00,92.1,25.2,29.67,NE,40,4.0,19.0,9,0.00,,---,0.00,VWS V12.07,2013-07-21 20:19:00,
2013-07-21 13:20:00,92.1,25.2,29.67,NNE,14,1.0,19.0,9,0.00,,---,0.00,VWS V12.07,2013-07-21 20:20:00,
2013-07-21 13:21:00,92.3,25.4,29.67,NNE,14,0.0,19.0,9,0.00,,---,0.00,VWS V12.07,2013-07-21 20:21:00,
2013-07-21 13:24:00,94.0,26.6,29.67,NNE,14,0.0,19.0,9,0.00,,---,0.00,VWS V12.07,2013-07-21 20:24:00,
2013-07-21 13:26:00,94.9,24.5,29.67,NNE,13,2.0,19.0,8,0.00,,---,0.00,VWS V12.07,2013-07-21 20:26:00,
2013-07-21 13:27:00,95.6,27.9,29.67,NNE,14,3.0,19.0,9,0.00,,---,0.00,VWS V12.07,2013-07-21 20:27:00,
2013-07-21 13:30:00,96.1,25.4,29.66,NE,45,0.0,19.0,8,0.00,,---,0.00,VWS V12.07,2013-07-21 20:30:00,
2013-07-21 13:31:00,96.1,28.2,29.66,NE,44,0.0,19.0,9,0.00,,---,0.00,VWS V12.07,2013-07-21 20:31:00,
2013-07-21 13:32:00,96.1,30.8,29.66,NE,45,1.0,19.0,10,0.00,,---,0.00,VWS V12.07,2013-07-21 20:32:00,
2013-07-21 13:35:00,96.6,28.6,29.66,NW,325,5.0,19.0,9,0.00,,---,0.00,VWS V12.07,2013-07-21 20:35:00,
2013-07-21 13:36:00,96.6,28.6,29.66,NW,322,0.0,19.0,9,0.00,,---,0.00,VWS V12.07,2013-07-21 20:36:00,
2013-07-21 13:37:00,96.8,28.7,29.66,NNW,332,0.0,19.0,9,0.00,,---,0.00,VWS V12.07,2013-07-21 20:37:00,
2013-07-21 13:40:00,96.6,28.6,29.66,NNW,342,2.0,19.0,9,0.00,,---,0.00,VWS V12.07,2013-07-21 20:40:00,
2013-07-21 13:41:00,96.6,28.6,29.66,NNW,330,3.0,19.0,9,0.00,,---,0.00,VWS V12.07,2013-07-21 20:41:00,
2013-07-21 13:42:00,96.6,31.2,29.66,NNW,328,0.0,19.0,10,0.00,,---,0.00,VWS V12.07,2013-07-21 20:42:00,
2013-07-21 13:46:00,97.8,29.5,29.64,North,11,0.0,19.0,9,0.00,,---,0.00,VWS V12.07,2013-07-21 20:46:00,
2013-07-21 13:47:00,97.8,32.1,29.64,North,11,0.0,19.0,10,0.00,,---,0.00,VWS V12.07,2013-07-21 20:47:00,
2013-07-21 13:48:00,98.0,29.6,29.64,North,3,0.0,19.0,9,0.00,,---,0.00,VWS V12.07,2013-07-21 20:48:00,
2013-07-21 13:51:00,99.0,27.5,29.64,North,4,1.0,19.0,8,0.00,,---,0.00,VWS V12.07,2013-07-21 20:51:00,
2013-07-21 13:52:00,99.0,27.5,29.64,North,4,1.0,19.0,8,0.00,,---,0.00,VWS V12.07,2013-07-21 20:52:00,
2013-07-21 13:53:00,99.0,27.5,29.64,North,4,1.0,19.0,8,0.00,,---,0.00,VWS V12.07,2013-07-21 20:53:00,
2013-07-21 13:56:00,99.2,27.6,29.64,North,3,0.0,19.0,8,0.00,,---,0.00,VWS V12.07,2013-07-21 20:56:00,
2013-07-21 13:57:00,99.2,27.6,29.64,North,3,0.0,19.0,8,0.00,,---,0.00,VWS V12.07,2013-07-21 20:57:00,
2013-07-21 13:58:00,99.2,27.6,29.64,North,3,0.0,19.0,8,0.00,,---,0.00,VWS V12.07,2013-07-21 20:58:00,
2013-07-21 14:02:00,99.2,30.5,29.63,North,356,0.0,19.0,9,0.00,,---,0.00,VWS V12.07,2013-07-21 21:02:00,
2013-07-21 14:03:00,99.2,30.5,29.63,North,352,1.0,19.0,9,0.00,,---,0.00,VWS V12.07,2013-07-21 21:03:00,
2013-07-21 14:05:00,98.5,30.0,29.63,NW,316,3.0,19.0,9,0.00,,---,0.00,VWS V12.07,2013-07-21 21:05:00,
2013-07-21 14:07:00,98.5,30.0,29.63,NNW,340,2.0,19.0,9,0.00,,---,0.00,VWS V12.07,2013-07-21 21:07:00,
2013-07-21 14:08:00,98.5,30.0,29.63,NNW,346,2.0,19.0,9,0.00,,---,0.00,VWS V12.07,2013-07-21 21:08:00,
2013-07-21 14:10:00,98.5,30.0,29.63,NNE,16,1.0,19.0,9,0.00,,---,0.00,VWS V12.07,2013-07-21 21:10:00,
2013-07-21 14:12:00,98.7,30.2,29.63,NNE,17,1.0,19.0,9,0.00,,---,0.00,VWS V12.07,2013-07-21 21:12:00,
2013-07-21 14:13:00,98.7,30.2,29.63,North,10,0.0,19.0,9,0.00,,---,0.00,VWS V12.07,2013-07-21 21:13:00,
2013-07-21 14:15:00,98.7,32.8,29.64,NNW,336,1.0,19.0,10,0.00,,---,0.00,VWS V12.07,2013-07-21 21:15:00,
2013-07-21 14:18:00,99.2,30.5,29.64,North,359,2.0,19.0,9,0.00,,---,0.00,VWS V12.07,2013-07-21 21:18:00,
2013-07-21 14:19:00,99.2,27.6,29.64,NNW,343,7.0,19.0,8,0.00,,---,0.00,VWS V12.07,2013-07-21 21:19:00,
2013-07-21 14:20:00,99.2,30.5,29.64,NNW,337,0.0,19.0,9,0.00,,---,0.00,VWS V12.07,2013-07-21 21:20:00,
2013-07-21 14:21:00,99.2,30.5,29.64,NNE,30,1.0,19.0,9,0.00,,---,0.00,VWS V12.07,2013-07-21 21:21:00,
2013-07-21 14:23:00,99.4,30.7,29.64,NNE,18,2.0,19.0,9,0.00,,---,0.00,VWS V12.07,2013-07-21 21:23:00,
2013-07-21 14:24:00,99.4,30.7,29.64,NW,326,4.0,19.0,9,0.00,,---,0.00,VWS V12.07,2013-07-21 21:24:00,
2013-07-21 14:25:00,99.4,30.7,29.64,NNW,328,0.0,19.0,9,0.00,,---,0.00,VWS V12.07,2013-07-21 21:25:00,
2013-07-21 14:26:00,99.7,30.9,29.64,NNW,328,0.0,19.0,9,0.00,,---,0.00,VWS V12.07,2013-07-21 21:26:00,
2013-07-21 14:29:00,99.7,30.9,29.64,North,359,2.0,19.0,9,0.00,,---,0.00,VWS V12.07,2013-07-21 21:29:00,
2013-07-21 14:30:00,99.7,30.9,29.63,North,356,1.0,19.0,9,0.00,,---,0.00,VWS V12.07,2013-07-21 21:30:00,
2013-07-21 14:32:00,99.2,30.5,29.63,NW,318,0.0,19.0,9,0.00,,---,0.00,VWS V12.07,2013-07-21 21:32:00,
2013-07-21 14:34:00,99.2,30.5,29.63,NNW,329,0.0,19.0,9,0.00,,---,0.00,VWS V12.07,2013-07-21 21:34:00,
2013-07-21 14:35:00,99.2,30.5,29.63,North,354,1.0,19.0,9,0.00,,---,0.00,VWS V12.07,2013-07-21 21:35:00,
2013-07-21 14:36:00,99.2,30.5,29.63,North,354,2.0,19.0,9,0.00,,---,0.00,VWS V12.07,2013-07-21 21:36:00,
2013-07-21 14:37:00,99.0,30.4,29.63,North,10,2.0,19.0,9,0.00,,---,0.00,VWS V12.07,2013-07-21 21:37:00,
2013-07-21 14:39:00,98.2,29.8,29.63,NNW,347,1.0,19.0,9,0.00,,---,0.00,VWS V12.07,2013-07-21 21:39:00,
2013-07-21 14:40:00,98.0,29.6,29.63,North,353,0.0,19.0,9,0.00,,---,0.00,VWS V12.07,2013-07-21 21:40:00,
2013-07-21 14:41:00,98.0,29.6,29.63,NNE,31,1.0,19.0,9,0.00,,---,0.00,VWS V12.07,2013-07-21 21:41:00,
2013-07-21 14:43:00,97.8,32.1,29.63,NNE,27,1.0,19.0,10,0.00,,---,0.00,VWS V12.07,2013-07-21 21:43:00,
2013-07-21 14:44:00,97.8,29.5,29.64,NW,305,1.0,19.0,9,0.00,,---,0.00,VWS V12.07,2013-07-21 21:44:00,
2013-07-21 14:45:00,97.8,29.5,29.64,NW,313,1.0,19.0,9,0.00,,---,0.00,VWS V12.07,2013-07-21 21:45:00,
2013-07-21 14:46:00,97.5,29.3,29.64,North,0,2.0,19.0,9,0.00,,---,0.00,VWS V12.07,2013-07-21 21:46:00,
2013-07-21 14:48:00,97.1,29.0,29.64,North,10,1.0,19.0,9,0.00,,---,0.00,VWS V12.07,2013-07-21 21:48:00,
2013-07-21 14:49:00,97.1,29.0,29.64,NNE,16,5.0,19.0,9,0.00,,---,0.00,VWS V12.07,2013-07-21 21:49:00,
2013-07-21 14:50:00,96.8,28.7,29.64,NNE,20,4.0,19.0,9,0.00,,---,0.00,VWS V12.07,2013-07-21 21:50:00,
2013-07-21 14:51:00,97.1,31.6,29.64,NNE,28,2.0,19.0,10,0.00,,---,0.00,VWS V12.07,2013-07-21 21:51:00,
2013-07-21 14:52:00,96.8,28.7,29.64,NNE,28,1.0,19.0,9,0.00,,---,0.00,VWS V12.07,2013-07-21 21:52:00,
2013-07-21 14:54:00,96.8,28.7,29.64,North,356,2.0,19.0,9,0.00,,---,0.00,VWS V12.07,2013-07-21 21:54:00,
2013-07-21 14:55:00,96.3,28.4,29.64,North,359,1.0,19.0,9,0.00,,---,0.00,VWS V12.07,2013-07-21 21:55:00,
2013-07-21 14:56:00,96.3,28.4,29.64,North,359,2.0,19.0,9,0.00,,---,0.00,VWS V12.07,2013-07-21 21:56:00,
2013-07-21 14:57:00,96.1,28.2,29.64,North,359,0.0,19.0,9,0.00,,---,0.00,VWS V12.07,2013-07-21 21:57:00,
2013-07-21 14:59:00,95.9,28.1,29.64,North,11,0.0,19.0,9,0.00,,---,0.00,VWS V12.07,2013-07-21 21:59:00,
2013-07-21 15:01:00,95.6,27.9,29.65,North,4,2.0,19.0,9,0.00,,---,0.00,VWS V12.07,2013-07-21 22:01:00,
2013-07-21 15:02:00,95.4,27.7,29.65,North,3,1.0,19.0,9,0.00,,---,0.00,VWS V12.07,2013-07-21 22:02:00,
2013-07-21 15:04:00,95.1,27.5,29.65,North,0,2.0,19.0,9,0.00,,---,0.00,VWS V12.07,2013-07-21 22:04:00,
2013-07-21 15:06:00,94.7,27.2,29.65,North,356,1.0,19.0,9,0.00,,---,0.00,VWS V12.07,2013-07-21 22:06:00,
2013-07-21 15:08:00,94.5,29.6,29.65,North,359,2.0,19.0,10,0.00,,---,0.00,VWS V12.07,2013-07-21 22:08:00,
2013-07-21 15:09:00,94.5,27.0,29.65,North,0,1.0,19.0,9,0.00,,---,0.00,VWS V12.07,2013-07-21 22:09:00,
2013-07-21 15:11:00,94.5,24.2,29.65,North,1,1.0,19.0,8,0.00,,---,0.00,VWS V12.07,2013-07-21 22:11:00,
2013-07-21 15:12:00,94.5,24.2,29.65,North,6,2.0,19.0,8,0.00,,---,0.00,VWS V12.07,2013-07-21 22:12:00,
2013-07-21 15:13:00,94.3,26.9,29.65,North,7,0.0,19.0,9,0.00,,---,0.00,VWS V12.07,2013-07-21 22:13:00,
2013-07-21 15:15:00,94.3,26.9,29.66,North,7,0.0,19.0,9,0.00,,---,0.00,VWS V12.07,2013-07-21 22:15:00,
2013-07-21 15:16:00,94.0,29.2,29.66,North,1,5.0,19.0,10,0.00,,---,0.00,VWS V12.07,2013-07-21 22:16:00,
2013-07-21 15:17:00,93.8,23.7,29.66,NNE,23,2.0,19.0,8,0.00,,---,0.00,VWS V12.07,2013-07-21 22:17:00,
2013-07-21 15:19:00,93.8,29.1,29.66,NE,55,0.0,19.0,10,0.00,,---,0.00,VWS V12.07,2013-07-21 22:19:00,
2013-07-21 15:20:00,93.8,29.1,29.66,North,3,3.0,19.0,10,0.00,,---,0.00,VWS V12.07,2013-07-21 22:20:00,
2013-07-21 15:21:00,93.6,26.4,29.66,North,7,0.0,19.0,9,0.00,,---,0.00,VWS V12.07,2013-07-21 22:21:00,
2013-07-21 15:22:00,93.6,26.4,29.66,North,8,2.0,19.0,9,0.00,,---,0.00,VWS V12.07,2013-07-21 22:22:00,
2013-07-21 15:24:00,93.6,26.4,29.66,NNW,339,4.0,19.0,9,0.00,,---,0.00,VWS V12.07,2013-07-21 22:24:00,
2013-07-21 15:25:00,93.6,26.4,29.66,North,3,2.0,19.0,9,0.00,,---,0.00,VWS V12.07,2013-07-21 22:25:00,
2013-07-21 15:27:00,93.6,26.4,29.66,North,4,1.0,19.0,9,0.00,,---,0.00,VWS V12.07,2013-07-21 22:27:00,
2013-07-21 15:28:00,93.6,23.5,29.66,North,0,1.0,19.0,8,0.00,,---,0.00,VWS V12.07,2013-07-21 22:28:00,
2013-07-21 15:29:00,93.6,26.4,29.66,North,0,0.0,19.0,9,0.00,,---,0.00,VWS V12.07,2013-07-21 22:29:00,
2013-07-21 15:30:00,93.6,23.5,29.66,NW,304,0.0,19.0,8,0.00,,---,0.00,VWS V12.07,2013-07-21 22:30:00,
2013-07-21 15:31:00,93.6,23.5,29.66,North,359,3.0,19.0,8,0.00,,---,0.00,VWS V12.07,2013-07-21 22:31:00,
2013-07-21 15:32:00,93.6,23.5,29.66,North,357,2.0,19.0,8,0.00,,---,0.00,VWS V12.07,2013-07-21 22:32:00,
2013-07-21 15:33:00,93.6,23.5,29.66,NNW,333,0.0,19.0,8,0.00,,---,0.00,VWS V12.07,2013-07-21 22:33:00,
2013-07-21 15:34:00,93.6,23.5,29.66,NNW,328,0.0,19.0,8,0.00,,---,0.00,VWS V12.07,2013-07-21 22:34:00,
2013-07-21 15:36:00,93.6,26.4,29.66,NNW,344,0.0,19.0,9,0.00,,---,0.00,VWS V12.07,2013-07-21 22:36:00,
2013-07-21 15:37:00,93.6,26.4,29.66,NNW,344,0.0,19.0,9,0.00,,---,0.00,VWS V12.07,2013-07-21 22:37:00,
2013-07-21 15:38:00,93.6,23.5,29.66,North,0,2.0,19.0,8,0.00,,---,0.00,VWS V12.07,2013-07-21 22:38:00,
2013-07-21 15:39:00,93.6,26.4,29.66,North,354,2.0,19.0,9,0.00,,---,0.00,VWS V12.07,2013-07-21 22:39:00,
2013-07-21 15:42:00,93.6,23.5,29.66,NNE,16,2.0,19.0,8,0.00,,---,0.00,VWS V12.07,2013-07-21 22:42:00,
2013-07-21 15:43:00,93.6,23.5,29.66,NNE,17,0.0,19.0,8,0.00,,---,0.00,VWS V12.07,2013-07-21 22:43:00,
2013-07-21 15:44:00,93.6,23.5,29.66,NNE,13,0.0,19.0,8,0.00,,---,0.00,VWS V12.07,2013-07-21 22:44:00,
2013-07-21 15:45:00,93.6,23.5,29.66,North,6,2.0,19.0,8,0.00,,---,0.00,VWS V12.07,2013-07-21 22:45:00,
2013-07-21 15:47:00,93.6,23.5,29.66,NE,34,2.0,19.0,8,0.00,,---,0.00,VWS V12.07,2013-07-21 22:47:00,
2013-07-21 15:48:00,93.6,23.5,29.66,NE,38,2.0,19.0,8,0.00,,---,0.00,VWS V12.07,2013-07-21 22:48:00,
2013-07-21 15:49:00,93.6,23.5,29.66,NE,38,1.0,19.0,8,0.00,,---,0.00,VWS V12.07,2013-07-21 22:49:00,
2013-07-21 15:51:00,93.6,23.5,29.66,NNE,31,2.0,19.0,8,0.00,,---,0.00,VWS V12.07,2013-07-21 22:51:00,
2013-07-21 15:52:00,93.6,23.5,29.66,NNE,30,1.0,19.0,8,0.00,,---,0.00,VWS V12.07,2013-07-21 22:52:00,
2013-07-21 15:53:00,93.4,23.4,29.66,NNW,335,0.0,19.0,8,0.00,,---,0.00,VWS V12.07,2013-07-21 22:53:00,
2013-07-21 15:54:00,93.4,23.4,29.66,West,277,9.0,19.0,8,0.00,,---,0.00,VWS V12.07,2013-07-21 22:54:00,
2013-07-21 15:56:00,93.4,23.4,29.66,North,8,3.0,19.0,8,0.00,,---,0.00,VWS V12.07,2013-07-21 22:56:00,
2013-07-21 15:58:00,93.4,23.4,29.66,NNE,13,1.0,19.0,8,0.00,,---,0.00,VWS V12.07,2013-07-21 22:58:00,
2013-07-21 15:59:00,93.4,23.4,29.66,NNW,335,2.0,19.0,8,0.00,,---,0.00,VWS V12.07,2013-07-21 22:59:00,
2013-07-21 16:00:00,93.4,23.4,29.67,North,357,0.0,19.0,8,0.00,,---,0.00,VWS V12.07,2013-07-21 23:00:00,
2013-07-21 16:01:00,93.4,23.4,29.67,North,7,4.0,19.0,8,0.00,,---,0.00,VWS V12.07,2013-07-21 23:01:00,
2013-07-21 16:03:00,93.4,23.4,29.67,North,0,0.0,19.0,8,0.00,,---,0.00,VWS V12.07,2013-07-21 23:03:00,
2013-07-21 16:04:00,93.4,23.4,29.67,North,354,1.0,19.0,8,0.00,,---,0.00,VWS V12.07,2013-07-21 23:04:00,
2013-07-21 16:05:00,93.2,23.2,29.67,NW,320,1.0,19.0,8,0.00,,---,0.00,VWS V12.07,2013-07-21 23:05:00,
2013-07-21 16:07:00,92.9,19.9,29.67,NNE,13,0.0,19.0,7,0.00,,---,0.00,VWS V12.07,2013-07-21 23:07:00,
2013-07-21 16:08:00,92.7,22.9,29.67,North,11,4.0,19.0,8,0.00,,---,0.00,VWS V12.07,2013-07-21 23:08:00,
2013-07-21 16:09:00,92.7,22.9,29.67,NNE,17,0.0,19.0,8,0.00,,---,0.00,VWS V12.07,2013-07-21 23:09:00,
2013-07-21 16:10:00,92.7,22.9,29.67,NNE,17,0.0,19.0,8,0.00,,---,0.00,VWS V12.07,2013-07-21 23:10:00,
2013-07-21 16:12:00,92.7,25.7,29.67,NNE,17,0.0,19.0,9,0.00,,---,0.00,VWS V12.07,2013-07-21 23:12:00,
2013-07-21 16:13:00,92.7,25.7,29.67,North,8,2.0,19.0,9,0.00,,---,0.00,VWS V12.07,2013-07-21 23:13:00,
2013-07-21 16:14:00,92.7,25.7,29.67,North,8,3.0,19.0,9,0.00,,---,0.00,VWS V12.07,2013-07-21 23:14:00,
2013-07-21 16:15:00,92.7,25.7,29.67,NNE,25,2.0,19.0,9,0.00,,---,0.00,VWS V12.07,2013-07-21 23:15:00,
2013-07-21 16:17:00,92.7,25.7,29.67,North,1,5.0,19.0,9,0.00,,---,0.00,VWS V12.07,2013-07-21 23:17:00,
2013-07-21 16:19:00,92.7,25.7,29.67,North,11,0.0,19.0,9,0.00,,---,0.00,VWS V12.07,2013-07-21 23:19:00,
2013-07-21 16:20:00,92.7,25.7,29.67,NNE,13,2.0,19.0,9,0.00,,---,0.00,VWS V12.07,2013-07-21 23:20:00,
2013-07-21 16:21:00,92.9,25.8,29.67,NW,319,0.0,19.0,9,0.00,,---,0.00,VWS V12.07,2013-07-21 23:21:00,
2013-07-21 16:23:00,92.9,25.8,29.67,NNE,27,1.0,19.0,9,0.00,,---,0.00,VWS V12.07,2013-07-21 23:23:00,
2013-07-21 16:25:00,92.7,25.7,29.67,NW,316,10.0,19.0,9,0.00,,---,0.00,VWS V12.07,2013-07-21 23:25:00,
2013-07-21 16:26:00,92.7,25.7,29.67,NW,326,3.0,19.0,9,0.00,,---,0.00,VWS V12.07,2013-07-21 23:26:00,
2013-07-21 16:28:00,92.5,28.1,29.67,NW,312,3.0,19.0,10,0.00,,---,0.00,VWS V12.07,2013-07-21 23:28:00,
2013-07-21 16:30:00,92.5,28.1,29.67,North,354,0.0,19.0,10,0.00,,---,0.00,VWS V12.07,2013-07-21 23:30:00,
2013-07-21 16:31:00,92.5,28.1,29.67,North,359,0.0,19.0,10,0.00,,---,0.00,VWS V12.07,2013-07-21 23:31:00,
2013-07-21 16:34:00,92.3,27.9,29.67,NNE,32,0.0,19.0,10,0.00,,---,0.00,VWS V12.07,2013-07-21 23:34:00,
2013-07-21 16:35:00,92.5,28.1,29.67,North,4,5.0,19.0,10,0.00,,---,0.00,VWS V12.07,2013-07-21 23:35:00,
2013-07-21 16:36:00,92.5,28.1,29.67,North,3,1.0,19.0,10,0.00,,---,0.00,VWS V12.07,2013-07-21 23:36:00,
2013-07-21 16:37:00,92.3,27.9,29.67,NNW,332,2.0,19.0,10,0.00,,---,0.00,VWS V12.07,2013-07-21 23:37:00,
2013-07-21 16:40:00,92.1,27.8,29.67,WNW,289,2.0,19.0,10,0.00,,---,0.00,VWS V12.07,2013-07-21 23:40:00,
2013-07-21 16:41:00,92.1,27.8,29.67,WNW,291,0.0,19.0,10,0.00,,---,0.00,VWS V12.07,2013-07-21 23:41:00,
2013-07-21 16:42:00,92.1,27.8,29.67,WNW,291,0.0,19.0,10,0.00,,---,0.00,VWS V12.07,2013-07-21 23:42:00,
2013-07-21 16:45:00,92.1,27.8,29.67,NNW,342,0.0,19.0,10,0.00,,---,0.00,VWS V12.07,2013-07-21 23:45:00,
2013-07-21 16:46:00,92.1,30.1,29.67,NNW,339,1.0,19.0,11,0.00,,---,0.00,VWS V12.07,2013-07-21 23:46:00,
2013-07-21 16:47:00,92.1,27.8,29.67,North,350,0.0,19.0,10,0.00,,---,0.00,VWS V12.07,2013-07-21 23:47:00,
2013-07-21 16:48:00,92.1,30.1,29.67,NNE,32,3.0,19.0,11,0.00,,---,0.00,VWS V12.07,2013-07-21 23:48:00,
2013-07-21 16:51:00,92.1,27.8,29.67,NNE,13,5.0,19.0,10,0.00,,---,0.00,VWS V12.07,2013-07-21 23:51:00,
2013-07-21 16:52:00,92.1,27.8,29.67,NNE,14,0.0,19.0,10,0.00,,---,0.00,VWS V12.07,2013-07-21 23:52:00,
2013-07-21 16:53:00,92.1,27.8,29.67,North,10,3.0,19.0,10,0.00,,---,0.00,VWS V12.07,2013-07-21 23:53:00,
2013-07-21 16:56:00,92.1,27.8,29.67,North,3,0.0,19.0,10,0.00,,---,0.00,VWS V12.07,2013-07-21 23:56:00,
2013-07-21 16:58:00,92.1,27.8,29.67,North,6,2.0,19.0,10,0.00,,---,0.00,VWS V12.07,2013-07-21 23:58:00,
2013-07-21 17:01:00,92.1,27.8,29.67,North,11,4.0,19.0,10,0.00,,---,0.00,VWS V12.07,2013-07-22 00:01:00,
2013-07-21 17:02:00,92.1,27.8,29.67,NNE,17,1.0,19.0,10,0.00,,---,0.00,VWS V12.07,2013-07-22 00:02:00,
2013-07-21 17:03:00,92.1,27.8,29.67,North,10,1.0,19.0,10,0.00,,---,0.00,VWS V12.07,2013-07-22 00:03:00,
2013-07-21 17:06:00,92.1,27.8,29.67,NNE,14,2.0,19.0,10,0.00,,---,0.00,VWS V12.07,2013-07-22 00:06:00,
2013-07-21 17:07:00,92.1,25.2,29.67,NNE,14,0.0,19.0,9,0.00,,---,0.00,VWS V12.07,2013-07-22 00:07:00,
2013-07-21 17:08:00,92.1,27.8,29.67,North,6,1.0,19.0,10,0.00,,---,0.00,VWS V12.07,2013-07-22 00:08:00,
2013-07-21 17:09:00,92.1,27.8,29.67,North,11,0.0,19.0,10,0.00,,---,0.00,VWS V12.07,2013-07-22 00:09:00,
2013-07-21 17:11:00,92.1,27.8,29.67,NNE,14,0.0,19.0,10,0.00,,---,0.00,VWS V12.07,2013-07-22 00:11:00,
2013-07-21 17:12:00,92.1,27.8,29.67,NNE,14,0.0,19.0,10,0.00,,---,0.00,VWS V12.07,2013-07-22 00:12:00,
2013-07-21 17:13:00,92.1,27.8,29.67,NNE,17,0.0,19.0,10,0.00,,---,0.00,VWS V12.07,2013-07-22 00:13:00,
2013-07-21 17:14:00,92.1,27.8,29.67,NNE,17,0.0,19.0,10,0.00,,---,0.00,VWS V12.07,2013-07-22 00:14:00,
2013-07-21 17:15:00,92.1,27.8,29.67,NNE,13,2.0,19.0,10,0.00,,---,0.00,VWS V12.07,2013-07-22 00:15:00,
2013-07-21 17:17:00,92.1,25.2,29.67,North,354,3.0,19.0,9,0.00,,---,0.00,VWS V12.07,2013-07-22 00:17:00,
2013-07-21 17:18:00,92.1,27.8,29.67,NNE,13,3.0,19.0,10,0.00,,---,0.00,VWS V12.07,2013-07-22 00:18:00,
2013-07-21 17:19:00,92.1,27.8,29.67,NNE,14,0.0,19.0,10,0.00,,---,0.00,VWS V12.07,2013-07-22 00:19:00,
2013-07-21 17:20:00,92.1,27.8,29.67,North,1,5.0,19.0,10,0.00,,---,0.00,VWS V12.07,2013-07-22 00:20:00,
2013-07-21 17:22:00,92.1,27.8,29.67,North,7,0.0,19.0,10,0.00,,---,0.00,VWS V12.07,2013-07-22 00:22:00,
2013-07-21 17:24:00,92.1,27.8,29.67,NW,326,2.0,19.0,10,0.00,,---,0.00,VWS V12.07,2013-07-22 00:24:00,
2013-07-21 17:25:00,92.1,25.2,29.67,North,10,2.0,19.0,9,0.00,,---,0.00,VWS V12.07,2013-07-22 00:25:00,
2013-07-21 17:27:00,92.1,27.8,29.67,North,7,1.0,19.0,10,0.00,,---,0.00,VWS V12.07,2013-07-22 00:27:00,
2013-07-21 17:29:00,92.1,27.8,29.67,North,8,0.0,19.0,10,0.00,,---,0.00,VWS V12.07,2013-07-22 00:29:00,
2013-07-21 17:30:00,92.1,30.1,29.67,North,354,2.0,19.0,11,0.00,,---,0.00,VWS V12.07,2013-07-22 00:30:00,
2013-07-21 17:33:00,91.8,27.5,29.67,NNW,337,0.0,19.0,10,0.00,,---,0.00,VWS V12.07,2013-07-22 00:33:00,
2013-07-21 17:34:00,91.8,29.9,29.67,NNW,339,0.0,19.0,11,0.00,,---,0.00,VWS V12.07,2013-07-22 00:34:00,
2013-07-21 17:35:00,91.8,29.9,29.67,NNW,339,0.0,19.0,11,0.00,,---,0.00,VWS V12.07,2013-07-22 00:35:00,
2013-07-21 17:36:00,91.8,29.9,29.67,NNW,339,0.0,19.0,11,0.00,,---,0.00,VWS V12.07,2013-07-22 00:36:00,
2013-07-21 17:38:00,91.8,29.9,29.67,NNW,332,0.0,19.0,11,0.00,,---,0.00,VWS V12.07,2013-07-22 00:38:00,
2013-07-21 17:39:00,91.8,29.9,29.67,NNW,332,1.0,19.0,11,0.00,,---,0.00,VWS V12.07,2013-07-22 00:39:00,
2013-07-21 17:40:00,91.8,29.9,29.67,NNW,339,1.0,19.0,11,0.00,,---,0.00,VWS V12.07,2013-07-22 00:40:00,
2013-07-21 17:41:00,91.8,29.9,29.67,NNW,339,0.0,19.0,11,0.00,,---,0.00,VWS V12.07,2013-07-22 00:41:00,
2013-07-21 17:43:00,91.8,29.9,29.67,NNW,343,0.0,19.0,11,0.00,,---,0.00,VWS V12.07,2013-07-22 00:43:00,
2013-07-21 17:45:00,92.1,30.1,29.67,NNW,340,0.0,19.0,11,0.00,,---,0.00,VWS V12.07,2013-07-22 00:45:00,
2013-07-21 17:46:00,92.1,30.1,29.67,NNW,340,2.0,19.0,11,0.00,,---,0.00,VWS V12.07,2013-07-22 00:46:00,
2013-07-21 17:48:00,92.3,27.9,29.67,NNW,342,0.0,19.0,10,0.00,,---,0.00,VWS V12.07,2013-07-22 00:48:00,
2013-07-21 17:49:00,92.3,27.9,29.67,NNW,342,0.0,19.0,10,0.00,,---,0.00,VWS V12.07,2013-07-22 00:49:00,
2013-07-21 17:50:00,92.3,27.9,29.67,NNW,342,1.0,19.0,10,0.00,,---,0.00,VWS V12.07,2013-07-22 00:50:00,
2013-07-21 17:51:00,92.3,27.9,29.67,NNW,340,1.0,19.0,10,0.00,,---,0.00,VWS V12.07,2013-07-22 00:51:00,
2013-07-21 17:53:00,91.4,27.2,29.67,SSW,196,6.0,19.0,10,0.00,,---,0.00,VWS V12.07,2013-07-22 00:53:00,
2013-07-21 17:55:00,90.7,21.4,29.67,SE,145,3.0,19.0,8,0.00,,---,0.00,VWS V12.07,2013-07-22 00:55:00,
2013-07-21 17:56:00,90.7,21.4,29.67,South,169,5.0,19.0,8,0.00,,---,0.00,VWS V12.07,2013-07-22 00:56:00,
2013-07-21 17:57:00,90.5,21.2,29.67,South,178,6.0,19.0,8,0.00,,---,0.00,VWS V12.07,2013-07-22 00:57:00,
2013-07-21 17:58:00,90.3,21.1,29.67,South,179,5.0,19.0,8,0.00,,---,0.00,VWS V12.07,2013-07-22 00:58:00,
2013-07-21 18:01:00,90.3,23.9,29.67,South,176,8.0,19.0,9,0.00,,---,0.00,VWS V12.07,2013-07-22 01:01:00,
2013-07-21 18:03:00,90.3,21.1,29.67,South,169,3.0,19.0,8,0.00,,---,0.00,VWS V12.07,2013-07-22 01:03:00,
2013-07-21 18:06:00,90.1,21.0,29.67,South,188,0.0,19.0,8,0.00,,---,0.00,VWS V12.07,2013-07-22 01:06:00,
2013-07-21 18:07:00,90.3,21.1,29.67,South,174,1.0,19.0,8,0.00,,---,0.00,VWS V12.07,2013-07-22 01:07:00,
2013-07-21 18:08:00,90.3,21.1,29.67,South,174,0.0,19.0,8,0.00,,---,0.00,VWS V12.07,2013-07-22 01:08:00,
2013-07-21 18:09:00,90.3,18.0,29.67,South,175,3.0,19.0,7,0.00,,---,0.00,VWS V12.07,2013-07-22 01:09:00,
2013-07-21 18:11:00,90.3,18.0,29.67,South,186,7.0,19.0,7,0.00,,---,0.00,VWS V12.07,2013-07-22 01:11:00,
2013-07-21 18:12:00,90.3,21.1,29.67,South,191,8.0,19.0,8,0.00,,---,0.00,VWS V12.07,2013-07-22 01:12:00,
2013-07-21 18:14:00,90.1,17.8,29.67,South,172,7.0,19.0,7,0.00,,---,0.00,VWS V12.07,2013-07-22 01:14:00,
2013-07-21 18:15:00,90.1,21.0,29.66,South,176,2.0,19.0,8,0.00,,---,0.00,VWS V12.07,2013-07-22 01:15:00,
2013-07-21 18:16:00,90.1,17.8,29.66,SSW,200,0.0,19.0,7,0.00,,---,0.00,VWS V12.07,2013-07-22 01:16:00,
2013-07-21 18:17:00,90.1,17.8,29.66,SSW,192,10.0,19.0,7,0.00,,---,0.00,VWS V12.07,2013-07-22 01:17:00,
2013-07-21 18:18:00,89.9,17.7,29.66,South,178,8.0,19.0,7,0.00,,---,0.00,VWS V12.07,2013-07-22 01:18:00,
2013-07-21 18:19:00,89.9,17.7,29.66,SSW,193,7.0,19.0,7,0.00,,---,0.00,VWS V12.07,2013-07-22 01:19:00,
2013-07-21 18:20:00,89.7,17.5,29.66,South,178,5.0,19.0,7,0.00,,---,0.00,VWS V12.07,2013-07-22 01:20:00,
2013-07-21 18:21:00,89.5,17.4,29.66,South,188,6.0,19.0,7,0.00,,---,0.00,VWS V12.07,2013-07-22 01:21:00,
2013-07-21 18:22:00,89.5,17.4,29.66,South,191,5.0,19.0,7,0.00,,---,0.00,VWS V12.07,2013-07-22 01:22:00,
2013-07-21 18:23:00,89.7,17.5,29.66,South,182,2.0,19.0,7,0.00,,---,0.00,VWS V12.07,2013-07-22 01:23:00,
2013-07-21 18:24:00,89.5,17.4,29.66,South,181,12.0,19.0,7,0.00,,---,0.00,VWS V12.07,2013-07-22 01:24:00,
2013-07-21 18:25:00,89.5,17.4,29.66,South,191,5.0,19.0,7,0.00,,---,0.00,VWS V12.07,2013-07-22 01:25:00,
2013-07-21 18:26:00,89.5,20.5,29.66,South,174,1.0,19.0,8,0.00,,---,0.00,VWS V12.07,2013-07-22 01:26:00,
2013-07-21 18:28:00,89.3,20.4,29.66,South,176,5.0,19.0,8,0.00,,---,0.00,VWS V12.07,2013-07-22 01:28:00,
2013-07-21 18:29:00,89.3,20.4,29.66,South,174,5.0,19.0,8,0.00,,---,0.00,VWS V12.07,2013-07-22 01:29:00,
2013-07-21 18:30:00,89.3,20.4,29.67,South,174,7.0,19.0,8,0.00,,---,0.00,VWS V12.07,2013-07-22 01:30:00,
2013-07-21 18:32:00,89.0,20.1,29.67,South,184,7.0,19.0,8,0.00,,---,0.00,VWS V12.07,2013-07-22 01:32:00,
2013-07-21 18:33:00,89.0,20.1,29.67,South,184,7.0,19.0,8,0.00,,---,0.00,VWS V12.07,2013-07-22 01:33:00,
2013-07-21 18:34:00,88.8,22.8,29.67,South,178,8.0,19.0,9,0.00,,---,0.00,VWS V12.07,2013-07-22 01:34:00,
2013-07-21 18:35:00,88.8,22.8,29.67,South,185,5.0,19.0,9,0.00,,---,0.00,VWS V12.07,2013-07-22 01:35:00,
2013-07-21 18:37:00,88.6,22.6,29.67,SSE,167,3.0,19.0,9,0.00,,---,0.00,VWS V12.07,2013-07-22 01:37:00,
2013-07-21 18:38:00,88.6,22.6,29.67,South,179,7.0,19.0,9,0.00,,---,0.00,VWS V12.07,2013-07-22 01:38:00,
2013-07-21 18:40:00,88.4,16.6,29.67,South,182,5.0,19.0,7,0.00,,---,0.00,VWS V12.07,2013-07-22 01:40:00,
2013-07-21 18:42:00,88.4,19.7,29.67,SSW,192,2.0,19.0,8,0.00,,---,0.00,VWS V12.07,2013-07-22 01:42:00,
2013-07-21 18:44:00,88.4,22.5,29.67,South,176,5.0,19.0,9,0.00,,---,0.00,VWS V12.07,2013-07-22 01:44:00,
2013-07-21 18:45:00,88.4,19.7,29.67,South,176,5.0,19.0,8,0.00,,---,0.00,VWS V12.07,2013-07-22 01:45:00,
2013-07-21 18:49:00,88.2,22.3,29.67,SSE,168,0.0,19.0,9,0.00,,---,0.00,VWS V12.07,2013-07-22 01:49:00,
2013-07-21 18:50:00,88.2,22.3,29.67,SSE,168,0.0,19.0,9,0.00,,---,0.00,VWS V12.07,2013-07-22 01:50:00,
2013-07-21 18:51:00,88.2,22.3,29.67,SSE,168,0.0,19.0,9,0.00,,---,0.00,VWS V12.07,2013-07-22 01:51:00,
2013-07-21 18:54:00,88.2,24.8,29.67,SSE,165,2.0,19.0,10,0.00,,---,0.00,VWS V12.07,2013-07-22 01:54:00,
2013-07-21 18:55:00,88.2,24.8,29.67,SSE,165,0.0,19.0,10,0.00,,---,0.00,VWS V12.07,2013-07-22 01:55:00,
2013-07-21 18:56:00,88.2,24.8,29.67,SSE,165,0.0,19.0,10,0.00,,---,0.00,VWS V12.07,2013-07-22 01:56:00,
2013-07-21 18:59:00,88.0,24.7,29.67,South,169,0.0,19.0,10,0.00,,---,0.00,VWS V12.07,2013-07-22 01:59:00,
2013-07-21 19:00:00,88.0,24.7,29.67,South,175,0.0,19.0,10,0.00,,---,0.00,VWS V12.07,2013-07-22 02:00:00,
2013-07-21 19:01:00,88.0,24.7,29.67,South,175,1.0,19.0,10,0.00,,---,0.00,VWS V12.07,2013-07-22 02:01:00,
2013-07-21 19:04:00,88.0,22.2,29.67,South,181,2.0,19.0,9,0.00,,---,0.00,VWS V12.07,2013-07-22 02:04:00,
2013-07-21 19:06:00,88.0,24.7,29.67,South,178,0.0,19.0,10,0.00,,---,0.00,VWS V12.07,2013-07-22 02:06:00,
2013-07-21 19:09:00,88.2,34.8,29.67,NNE,25,0.0,19.0,15,0.00,,---,0.00,VWS V12.07,2013-07-22 02:09:00,
2013-07-21 19:11:00,88.2,36.4,29.67,NNW,332,0.0,19.0,16,0.00,,---,0.00,VWS V12.07,2013-07-22 02:11:00,
2013-07-21 19:12:00,88.2,37.9,29.67,North,359,5.0,19.0,17,0.00,,---,0.00,VWS V12.07,2013-07-22 02:12:00,
2013-07-21 19:15:00,88.0,37.8,29.63,North,359,0.0,19.0,17,0.00,,---,0.00,VWS V12.07,2013-07-22 02:15:00,
2013-07-21 19:16:00,88.0,36.2,29.63,North,7,2.0,19.0,16,0.00,,---,0.00,VWS V12.07,2013-07-22 02:16:00,
2013-07-21 19:17:00,88.0,36.2,29.63,North,7,0.0,19.0,16,0.00,,---,0.00,VWS V12.07,2013-07-22 02:17:00,
2013-07-21 19:20:00,87.6,37.5,29.63,North,7,0.0,19.0,17,0.00,,---,0.00,VWS V12.07,2013-07-22 02:20:00,
2013-07-21 19:21:00,87.6,37.5,29.63,North,7,0.0,19.0,17,0.00,,---,0.00,VWS V12.07,2013-07-22 02:21:00,
2013-07-21 19:22:00,87.6,38.9,29.63,NNE,14,1.0,19.0,18,0.00,,---,0.00,VWS V12.07,2013-07-22 02:22:00,
2013-07-21 19:26:00,87.0,38.4,29.63,North,0,0.0,19.0,18,0.00,,---,0.00,VWS V12.07,2013-07-22 02:26:00,
2013-07-21 19:27:00,87.0,38.4,29.63,North,0,0.0,19.0,18,0.00,,---,0.00,VWS V12.07,2013-07-22 02:27:00,
2013-07-21 19:31:00,86.7,38.2,29.65,North,354,0.0,19.0,18,0.00,,---,0.00,VWS V12.07,2013-07-22 02:31:00,
2013-07-21 19:32:00,86.7,38.2,29.65,North,354,0.0,19.0,18,0.00,,---,0.00,VWS V12.07,2013-07-22 02:32:00,
2013-07-21 19:33:00,86.7,38.2,29.65,North,354,0.0,19.0,18,0.00,,---,0.00,VWS V12.07,2013-07-22 02:33:00,
2013-07-21 19:36:00,86.5,38.0,29.65,North,354,0.0,19.0,18,0.00,,---,0.00,VWS V12.07,2013-07-22 02:36:00,
2013-07-21 19:37:00,86.5,38.0,29.65,North,354,0.0,19.0,18,0.00,,---,0.00,VWS V12.07,2013-07-22 02:37:00,
2013-07-21 19:38:00,86.5,38.0,29.65,North,354,0.0,19.0,18,0.00,,---,0.00,VWS V12.07,2013-07-22 02:38:00,
2013-07-21 19:39:00,86.5,39.4,29.65,North,354,0.0,19.0,19,0.00,,---,0.00,VWS V12.07,2013-07-22 02:39:00,
2013-07-21 19:41:00,86.3,39.2,29.65,North,354,0.0,19.0,19,0.00,,---,0.00,VWS V12.07,2013-07-22 02:41:00,
2013-07-21 19:42:00,86.1,37.7,29.65,North,354,0.0,19.0,18,0.00,,---,0.00,VWS V12.07,2013-07-22 02:42:00,
2013-07-21 19:43:00,86.1,37.7,29.65,North,354,0.0,19.0,18,0.00,,---,0.00,VWS V12.07,2013-07-22 02:43:00,
2013-07-21 19:44:00,85.9,38.9,29.65,North,354,0.0,19.0,19,0.00,,---,0.00,VWS V12.07,2013-07-22 02:44:00,
2013-07-21 19:46:00,85.7,38.7,29.65,North,3,2.0,19.0,19,0.00,,---,0.00,VWS V12.07,2013-07-22 02:46:00,
2013-07-21 19:47:00,85.5,38.6,29.65,North,1,0.0,19.0,19,0.00,,---,0.00,VWS V12.07,2013-07-22 02:47:00,
2013-07-21 19:48:00,85.3,39.7,29.65,North,1,0.0,19.0,20,0.00,,---,0.00,VWS V12.07,2013-07-22 02:48:00,
2013-07-21 19:49:00,85.3,39.7,29.65,North,1,0.0,19.0,20,0.00,,---,0.00,VWS V12.07,2013-07-22 02:49:00,
2013-07-21 19:52:00,84.7,37.9,29.65,North,0,0.0,19.0,19,0.00,,---,0.00,VWS V12.07,2013-07-22 02:52:00,
2013-07-21 19:53:00,84.5,40.3,29.65,North,0,2.0,19.0,21,0.00,,---,0.00,VWS V12.07,2013-07-22 02:53:00,
2013-07-21 19:54:00,84.0,39.9,29.65,NE,55,0.0,19.0,21,0.00,,---,0.00,VWS V12.07,2013-07-22 02:54:00,
2013-07-21 19:57:00,83.4,39.4,29.65,NNE,24,0.0,19.0,21,0.00,,---,0.00,VWS V12.07,2013-07-22 02:57:00,
2013-07-21 19:58:00,83.2,39.2,29.65,NNE,24,0.0,19.0,21,0.00,,---,0.00,VWS V12.07,2013-07-22 02:58:00,
2013-07-21 20:00:00,83.0,39.1,29.67,NNE,24,0.0,19.0,21,0.00,,---,0.00,VWS V12.07,2013-07-22 03:00:00,
2013-07-21 20:02:00,82.6,38.8,29.67,North,1,0.0,19.0,21,0.00,,---,0.00,VWS V12.07,2013-07-22 03:02:00,
2013-07-21 20:03:00,82.6,38.8,29.67,North,1,3.0,19.0,21,0.00,,---,0.00,VWS V12.07,2013-07-22 03:03:00,
2013-07-21 20:04:00,82.4,39.8,29.67,North,1,0.0,19.0,22,0.00,,---,0.00,VWS V12.07,2013-07-22 03:04:00,
2013-07-21 20:05:00,82.4,39.8,29.67,North,1,0.0,19.0,22,0.00,,---,0.00,VWS V12.07,2013-07-22 03:05:00,
2013-07-21 20:07:00,82.0,39.4,29.67,North,349,0.0,19.0,22,0.00,,---,0.00,VWS V12.07,2013-07-22 03:07:00,
2013-07-21 20:08:00,82.0,39.4,29.67,North,349,0.0,19.0,22,0.00,,---,0.00,VWS V12.07,2013-07-22 03:08:00,
2013-07-21 20:09:00,82.0,39.4,29.67,North,349,0.0,19.0,22,0.00,,---,0.00,VWS V12.07,2013-07-22 03:09:00,
2013-07-21 20:10:00,81.8,39.3,29.67,North,349,0.0,19.0,22,0.00,,---,0.00,VWS V12.07,2013-07-22 03:10:00,
2013-07-21 20:13:00,81.6,39.1,29.67,North,349,0.0,19.0,22,0.00,,---,0.00,VWS V12.07,2013-07-22 03:13:00,
2013-07-21 20:14:00,81.2,38.8,29.63,North,349,0.0,19.0,22,0.00,,---,0.00,VWS V12.07,2013-07-22 03:14:00,
2013-07-21 20:15:00,81.2,38.8,29.63,North,349,0.0,19.0,22,0.00,,---,0.00,VWS V12.07,2013-07-22 03:15:00,
2013-07-21 20:18:00,80.7,39.5,29.63,North,349,0.0,19.0,23,0.00,,---,0.00,VWS V12.07,2013-07-22 03:18:00,
2013-07-21 20:19:00,80.7,39.5,29.63,North,349,0.0,19.0,23,0.00,,---,0.00,VWS V12.07,2013-07-22 03:19:00,
2013-07-21 20:20:00,80.3,39.2,29.63,North,349,0.0,19.0,23,0.00,,---,0.00,VWS V12.07,2013-07-22 03:20:00,
2013-07-21 20:23:00,79.8,39.8,29.63,North,349,0.0,19.0,24,0.00,,---,0.00,VWS V12.07,2013-07-22 03:23:00,
2013-07-21 20:24:00,79.6,39.7,29.63,North,349,0.0,19.0,24,0.00,,---,0.00,VWS V12.07,2013-07-22 03:24:00,
2013-07-21 20:25:00,79.6,39.7,29.63,North,349,0.0,19.0,24,0.00,,---,0.00,VWS V12.07,2013-07-22 03:25:00,
2013-07-21 20:26:00,79.4,39.5,29.63,North,349,0.0,19.0,24,0.00,,---,0.00,VWS V12.07,2013-07-22 03:26:00,
2013-07-21 20:29:00,79.0,39.2,29.63,North,349,0.0,19.0,24,0.00,,---,0.00,VWS V12.07,2013-07-22 03:29:00,
2013-07-21 20:30:00,78.8,39.0,29.65,North,349,0.0,19.0,24,0.00,,---,0.00,VWS V12.07,2013-07-22 03:30:00,
2013-07-21 20:31:00,78.8,39.0,29.65,North,349,0.0,19.0,24,0.00,,---,0.00,VWS V12.07,2013-07-22 03:31:00,
2013-07-21 20:34:00,78.6,38.8,29.65,North,349,0.0,19.0,24,0.00,,---,0.00,VWS V12.07,2013-07-22 03:34:00,
2013-07-21 20:35:00,78.5,39.8,29.65,North,349,0.0,19.0,25,0.00,,---,0.00,VWS V12.07,2013-07-22 03:35:00,
2013-07-21 20:36:00,78.3,39.6,29.65,North,349,0.0,19.0,25,0.00,,---,0.00,VWS V12.07,2013-07-22 03:36:00,
2013-07-21 20:37:00,78.3,39.6,29.65,North,349,0.0,19.0,25,0.00,,---,0.00,VWS V12.07,2013-07-22 03:37:00,
2013-07-21 20:39:00,77.9,39.3,29.65,North,349,0.0,19.0,25,0.00,,---,0.00,VWS V12.07,2013-07-22 03:39:00,
2013-07-21 20:40:00,77.9,39.3,29.65,North,349,0.0,19.0,25,0.00,,---,0.00,VWS V12.07,2013-07-22 03:40:00,
2013-07-21 20:42:00,77.6,39.0,29.65,North,349,0.0,19.0,25,0.00,,---,0.00,VWS V12.07,2013-07-22 03:42:00,
2013-07-21 20:45:00,76.8,39.3,29.66,North,349,0.0,19.0,26,0.00,,---,0.00,VWS V12.07,2013-07-22 03:45:00,
2013-07-21 20:47:00,76.7,39.3,29.66,North,349,0.0,19.0,26,0.00,,---,0.00,VWS V12.07,2013-07-22 03:47:00,
2013-07-21 20:50:00,76.1,38.8,29.66,North,349,0.0,19.0,26,0.00,,---,0.00,VWS V12.07,2013-07-22 03:50:00,
2013-07-21 20:51:00,76.1,38.8,29.66,North,349,0.0,19.0,26,0.00,,---,0.00,VWS V12.07,2013-07-22 03:51:00,
2013-07-21 20:52:00,76.0,38.7,29.66,North,349,0.0,19.0,26,0.00,,---,0.00,VWS V12.07,2013-07-22 03:52:00,
2013-07-21 20:53:00,76.0,38.7,29.66,North,349,0.0,19.0,26,0.00,,---,0.00,VWS V12.07,2013-07-22 03:53:00,
2013-07-21 20:55:00,75.3,38.1,29.66,North,349,0.0,19.0,26,0.00,,---,0.00,VWS V12.07,2013-07-22 03:55:00,
2013-07-21 20:56:00,74.9,37.7,29.66,North,349,0.0,19.0,26,0.00,,---,0.00,VWS V12.07,2013-07-22 03:56:00,
2013-07-21 20:57:00,74.7,38.5,29.66,North,349,0.0,19.0,27,0.00,,---,0.00,VWS V12.07,2013-07-22 03:57:00,
2013-07-21 20:58:00,74.7,38.5,29.66,North,349,0.0,19.0,27,0.00,,---,0.00,VWS V12.07,2013-07-22 03:58:00,
2013-07-21 21:00:00,74.0,37.9,29.67,North,349,0.0,19.0,27,0.00,,---,0.00,VWS V12.07,2013-07-22 04:00:00,
2013-07-21 21:01:00,74.0,37.9,29.67,North,349,0.0,19.0,27,0.00,,---,0.00,VWS V12.07,2013-07-22 04:01:00,
2013-07-21 21:06:00,73.3,37.3,29.67,North,349,0.0,19.0,27,0.00,,---,0.00,VWS V12.07,2013-07-22 04:06:00,
2013-07-21 21:07:00,73.3,37.3,29.67,North,349,0.0,19.0,27,0.00,,---,0.00,VWS V12.07,2013-07-22 04:07:00,
2013-07-21 21:11:00,72.7,36.8,29.67,North,349,0.0,19.0,27,0.00,,---,0.00,VWS V12.07,2013-07-22 04:11:00,
2013-07-21 21:12:00,72.5,37.6,29.67,North,349,0.0,19.0,28,0.00,,---,0.00,VWS V12.07,2013-07-22 04:12:00,
2013-07-21 21:16:00,71.6,36.8,29.66,North,349,0.0,19.0,28,0.00,,---,0.00,VWS V12.07,2013-07-22 04:16:00,
2013-07-21 21:17:00,71.6,36.8,29.66,North,349,0.0,19.0,28,0.00,,---,0.00,VWS V12.07,2013-07-22 04:17:00,
2013-07-21 21:18:00,71.5,36.7,29.66,North,349,0.0,19.0,28,0.00,,---,0.00,VWS V12.07,2013-07-22 04:18:00,
2013-07-21 21:21:00,70.6,37.7,29.66,North,349,0.0,19.0,30,0.00,,---,0.00,VWS V12.07,2013-07-22 04:21:00,
2013-07-21 21:22:00,70.6,37.7,29.66,North,349,0.0,19.0,30,0.00,,---,0.00,VWS V12.07,2013-07-22 04:22:00,
2013-07-21 21:23:00,70.3,37.4,29.66,North,349,0.0,19.0,30,0.00,,---,0.00,VWS V12.07,2013-07-22 04:23:00,
2013-07-21 21:27:00,68.8,38.5,29.66,North,349,0.0,19.0,33,0.00,,---,0.00,VWS V12.07,2013-07-22 04:27:00,
2013-07-21 21:28:00,68.4,38.2,29.66,North,349,0.0,19.0,33,0.00,,---,0.00,VWS V12.07,2013-07-22 04:28:00,
2013-07-21 21:32:00,67.6,38.3,29.68,North,349,0.0,19.0,34,0.00,,---,0.00,VWS V12.07,2013-07-22 04:32:00,
2013-07-21 21:33:00,67.6,39.0,29.68,North,349,0.0,19.0,35,0.00,,---,0.00,VWS V12.07,2013-07-22 04:33:00,
2013-07-21 21:38:00,66.8,36.8,29.68,North,349,0.0,19.0,33,0.00,,---,0.00,VWS V12.07,2013-07-22 04:38:00,
2013-07-21 21:39:00,66.6,35.8,29.68,North,349,0.0,19.0,32,0.00,,---,0.00,VWS V12.07,2013-07-22 04:39:00,
2013-07-21 21:43:00,66.1,36.9,29.68,North,349,0.0,19.0,34,0.00,,---,0.00,VWS V12.07,2013-07-22 04:43:00,
2013-07-21 21:44:00,65.8,35.9,29.69,North,349,0.0,19.0,33,0.00,,---,0.00,VWS V12.07,2013-07-22 04:44:00,
2013-07-21 21:45:00,65.8,35.9,29.69,North,349,0.0,19.0,33,0.00,,---,0.00,VWS V12.07,2013-07-22 04:45:00,
2013-07-21 21:48:00,65.3,36.2,29.69,North,349,0.0,19.0,34,0.00,,---,0.00,VWS V12.07,2013-07-22 04:48:00,
2013-07-21 21:49:00,65.2,35.4,29.69,North,349,0.0,19.0,33,0.00,,---,0.00,VWS V12.07,2013-07-22 04:49:00,
2013-07-21 21:50:00,65.0,35.2,29.69,North,349,0.0,19.0,33,0.00,,---,0.00,VWS V12.07,2013-07-22 04:50:00,
2013-07-21 21:53:00,64.7,37.2,29.69,North,349,0.0,19.0,36,0.00,,---,0.00,VWS V12.07,2013-07-22 04:53:00,
2013-07-21 21:55:00,64.5,37.0,29.69,North,349,0.0,19.0,36,0.00,,---,0.00,VWS V12.07,2013-07-22 04:55:00,
2013-07-21 21:58:00,64.2,37.4,29.69,North,349,0.0,19.0,37,0.00,,---,0.00,VWS V12.07,2013-07-22 04:58:00,
2013-07-21 22:00:00,63.7,36.3,29.70,North,349,0.0,19.0,36,0.00,,---,0.00,VWS V12.07,2013-07-22 05:00:00,
2013-07-21 22:01:00,63.7,36.3,29.70,North,349,0.0,19.0,36,0.00,,---,0.00,VWS V12.07,2013-07-22 05:01:00,
2013-07-21 22:03:00,63.2,37.2,29.70,North,349,0.0,19.0,38,0.00,,---,0.00,VWS V12.07,2013-07-22 05:03:00,
2013-07-21 22:04:00,63.1,37.1,29.70,North,349,0.0,19.0,38,0.00,,---,0.00,VWS V12.07,2013-07-22 05:04:00,
2013-07-21 22:05:00,62.7,37.4,29.70,North,349,0.0,19.0,39,0.00,,---,0.00,VWS V12.07,2013-07-22 05:05:00,
2013-07-21 22:06:00,62.6,37.3,29.70,North,349,1.0,19.0,39,0.00,,---,0.00,VWS V12.07,2013-07-22 05:06:00,
2013-07-21 22:08:00,62.3,37.0,29.70,North,349,0.0,19.0,39,0.00,,---,0.00,VWS V12.07,2013-07-22 05:08:00,
2013-07-21 22:09:00,62.1,36.9,29.70,North,349,0.0,19.0,39,0.00,,---,0.00,VWS V12.07,2013-07-22 05:09:00,
2013-07-21 22:11:00,62.0,37.4,29.70,North,349,0.0,19.0,40,0.00,,---,0.00,VWS V12.07,2013-07-22 05:11:00,
2013-07-21 22:12:00,62.0,37.4,29.70,North,349,0.0,19.0,40,0.00,,---,0.00,VWS V12.07,2013-07-22 05:12:00,
2013-07-21 22:14:00,61.6,35.8,29.70,North,349,0.0,19.0,38,0.00,,---,0.00,VWS V12.07,2013-07-22 05:14:00,
2013-07-21 22:15:00,61.5,35.7,29.69,North,349,0.0,19.0,38,0.00,,---,0.00,VWS V12.07,2013-07-22 05:15:00,
2013-07-21 22:16:00,61.3,35.5,29.69,North,349,0.0,19.0,38,0.00,,---,0.00,VWS V12.07,2013-07-22 05:16:00,
2013-07-21 22:17:00,61.2,34.7,29.69,North,349,0.0,19.0,37,0.00,,---,0.00,VWS V12.07,2013-07-22 05:17:00,
2013-07-21 22:19:00,61.0,34.6,29.69,North,349,0.0,19.0,37,0.00,,---,0.00,VWS V12.07,2013-07-22 05:19:00,
2013-07-21 22:20:00,61.0,34.6,29.69,North,349,0.0,19.0,37,0.00,,---,0.00,VWS V12.07,2013-07-22 05:20:00,
2013-07-21 22:21:00,60.9,35.8,29.69,North,349,0.0,19.0,39,0.00,,---,0.00,VWS V12.07,2013-07-22 05:21:00,
2013-07-21 22:22:00,60.9,34.5,29.69,North,349,0.0,19.0,37,0.00,,---,0.00,VWS V12.07,2013-07-22 05:22:00,
2013-07-21 22:25:00,60.7,35.0,29.69,North,349,0.0,19.0,38,0.00,,---,0.00,VWS V12.07,2013-07-22 05:25:00,
2013-07-21 22:26:00,60.7,35.0,29.69,North,349,0.0,19.0,38,0.00,,---,0.00,VWS V12.07,2013-07-22 05:26:00,
2013-07-21 22:27:00,60.5,34.8,29.69,North,349,0.0,19.0,38,0.00,,---,0.00,VWS V12.07,2013-07-22 05:27:00,
2013-07-21 22:28:00,60.4,34.7,29.69,North,349,0.0,19.0,38,0.00,,---,0.00,VWS V12.07,2013-07-22 05:28:00,
2013-07-21 22:30:00,60.2,35.2,29.71,North,349,0.0,19.0,39,0.00,,---,0.00,VWS V12.07,2013-07-22 05:30:00,
2013-07-21 22:31:00,60.1,35.1,29.71,North,349,0.0,19.0,39,0.00,,---,0.00,VWS V12.07,2013-07-22 05:31:00,
2013-07-21 22:33:00,59.8,34.8,29.71,North,349,0.0,19.0,39,0.00,,---,0.00,VWS V12.07,2013-07-22 05:33:00,
2013-07-21 22:35:00,59.5,35.2,29.71,North,349,0.0,19.0,40,0.00,,---,0.00,VWS V12.07,2013-07-22 05:35:00,
2013-07-21 22:36:00,59.3,35.6,29.71,North,349,0.0,19.0,41,0.00,,---,0.00,VWS V12.07,2013-07-22 05:36:00,
2013-07-21 22:38:00,59.2,35.5,29.71,North,349,0.0,19.0,41,0.00,,---,0.00,VWS V12.07,2013-07-22 05:38:00,
2013-07-21 22:40:00,59.0,35.3,29.71,North,349,0.0,19.0,41,0.00,,---,0.00,VWS V12.07,2013-07-22 05:40:00,
2013-07-21 22:41:00,59.0,34.7,29.71,North,349,0.0,19.0,40,0.00,,---,0.00,VWS V12.07,2013-07-22 05:41:00,
2013-07-21 22:43:00,58.9,35.3,29.71,North,349,0.0,19.0,41,0.00,,---,0.00,VWS V12.07,2013-07-22 05:43:00,
2013-07-21 22:44:00,58.9,35.3,29.71,North,349,0.0,19.0,41,0.00,,---,0.00,VWS V12.07,2013-07-22 05:44:00,
2013-07-21 22:46:00,58.7,35.1,29.71,North,349,0.0,19.0,41,0.00,,---,0.00,VWS V12.07,2013-07-22 05:46:00,
2013-07-21 22:47:00,58.7,35.1,29.71,North,349,0.0,19.0,41,0.00,,---,0.00,VWS V12.07,2013-07-22 05:47:00,
2013-07-21 22:48:00,58.6,35.0,29.71,North,349,0.0,19.0,41,0.00,,---,0.00,VWS V12.07,2013-07-22 05:48:00,
2013-07-21 22:49:00,58.4,34.8,29.71,North,349,0.0,19.0,41,0.00,,---,0.00,VWS V12.07,2013-07-22 05:49:00,
2013-07-21 22:51:00,58.3,34.7,29.71,North,349,0.0,19.0,41,0.00,,---,0.00,VWS V12.07,2013-07-22 05:51:00,
2013-07-21 22:52:00,58.1,34.5,29.71,North,349,0.0,19.0,41,0.00,,---,0.00,VWS V12.07,2013-07-22 05:52:00,
2013-07-21 22:53:00,58.1,34.5,29.71,North,349,0.0,19.0,41,0.00,,---,0.00,VWS V12.07,2013-07-22 05:53:00,
2013-07-21 22:54:00,58.0,34.5,29.71,North,349,0.0,19.0,41,0.00,,---,0.00,VWS V12.07,2013-07-22 05:54:00,
2013-07-21 22:55:00,58.0,33.8,29.71,North,349,0.0,19.0,40,0.00,,---,0.00,VWS V12.07,2013-07-22 05:55:00,
2013-07-21 22:56:00,57.8,34.3,29.71,North,349,0.0,19.0,41,0.00,,---,0.00,VWS V12.07,2013-07-22 05:56:00,
2013-07-21 22:57:00,57.8,34.9,29.71,North,349,0.0,19.0,42,0.00,,---,0.00,VWS V12.07,2013-07-22 05:57:00,
2013-07-21 22:58:00,57.6,34.7,29.71,North,349,1.0,19.0,42,0.00,,---,0.00,VWS V12.07,2013-07-22 05:58:00,
2013-07-21 22:59:00,57.6,34.7,29.71,North,349,0.0,19.0,42,0.00,,---,0.00,VWS V12.07,2013-07-22 05:59:00,
2013-07-21 23:00:00,57.3,34.4,29.72,North,349,0.0,19.0,42,0.00,,---,0.00,VWS V12.07,2013-07-22 06:00:00,
2013-07-21 23:02:00,57.3,34.4,29.72,North,349,0.0,19.0,42,0.00,,---,0.00,VWS V12.07,2013-07-22 06:02:00,
2013-07-21 23:03:00,57.2,34.9,29.72,North,349,0.0,19.0,43,0.00,,---,0.00,VWS V12.07,2013-07-22 06:03:00,
2013-07-21 23:04:00,57.2,34.9,29.72,North,349,0.0,19.0,43,0.00,,---,0.00,VWS V12.07,2013-07-22 06:04:00,
2013-07-21 23:06:00,57.2,35.5,29.72,North,349,0.0,19.0,44,0.00,,---,0.00,VWS V12.07,2013-07-22 06:06:00,
2013-07-21 23:07:00,57.0,35.3,29.72,North,349,0.0,19.0,44,0.00,,---,0.00,VWS V12.07,2013-07-22 06:07:00,
2013-07-21 23:08:00,57.0,35.3,29.72,North,349,0.0,19.0,44,0.00,,---,0.00,VWS V12.07,2013-07-22 06:08:00,
2013-07-21 23:09:00,57.0,35.3,29.72,North,349,0.0,19.0,44,0.00,,---,0.00,VWS V12.07,2013-07-22 06:09:00,
2013-07-21 23:11:00,56.7,35.6,29.72,North,349,0.0,19.0,45,0.00,,---,0.00,VWS V12.07,2013-07-22 06:11:00,
2013-07-21 23:12:00,56.6,35.0,29.72,North,349,0.0,19.0,44,0.00,,---,0.00,VWS V12.07,2013-07-22 06:12:00,
2013-07-21 23:14:00,56.5,35.4,29.72,North,349,0.0,19.0,45,0.00,,---,0.00,VWS V12.07,2013-07-22 06:14:00,
2013-07-21 23:16:00,56.2,35.2,29.70,North,349,0.0,19.0,45,0.00,,---,0.00,VWS V12.07,2013-07-22 06:16:00,
2013-07-21 23:17:00,56.0,35.0,29.70,North,349,1.0,19.0,45,0.00,,---,0.00,VWS V12.07,2013-07-22 06:17:00,
2013-07-21 23:19:00,55.9,36.0,29.70,North,349,0.0,19.0,47,0.00,,---,0.00,VWS V12.07,2013-07-22 06:19:00,
2013-07-21 23:22:00,55.6,35.2,29.70,North,349,0.0,19.0,46,0.00,,---,0.00,VWS V12.07,2013-07-22 06:22:00,
2013-07-21 23:24:00,55.4,35.5,29.70,North,349,0.0,19.0,47,0.00,,---,0.00,VWS V12.07,2013-07-22 06:24:00,
2013-07-21 23:25:00,55.4,35.5,29.70,North,349,0.0,19.0,47,0.00,,---,0.00,VWS V12.07,2013-07-22 06:25:00,
2013-07-21 23:27:00,55.3,35.4,29.70,North,349,0.0,19.0,47,0.00,,---,0.00,VWS V12.07,2013-07-22 06:27:00,
2013-07-21 23:29:00,55.1,35.2,29.71,North,349,0.0,19.0,47,0.00,,---,0.00,VWS V12.07,2013-07-22 06:29:00,
2013-07-21 23:30:00,55.0,35.2,29.71,North,349,0.0,19.0,47,0.00,,---,0.00,VWS V12.07,2013-07-22 06:30:00,
2013-07-21 23:31:00,55.0,35.2,29.71,North,349,0.0,19.0,47,0.00,,---,0.00,VWS V12.07,2013-07-22 06:31:00,
2013-07-21 23:32:00,54.8,35.0,29.71,North,349,0.0,19.0,47,0.00,,---,0.00,VWS V12.07,2013-07-22 06:32:00,
2013-07-21 23:33:00,54.7,35.4,29.71,North,349,0.0,19.0,48,0.00,,---,0.00,VWS V12.07,2013-07-22 06:33:00,
2013-07-21 23:34:00,54.5,34.7,29.71,North,349,0.0,19.0,47,0.00,,---,0.00,VWS V12.07,2013-07-22 06:34:00,
2013-07-21 23:36:00,54.5,34.2,29.71,North,349,0.0,19.0,46,0.00,,---,0.00,VWS V12.07,2013-07-22 06:36:00,
2013-07-21 23:37:00,54.5,35.2,29.71,North,349,0.0,19.0,48,0.00,,---,0.00,VWS V12.07,2013-07-22 06:37:00,
2013-07-21 23:38:00,54.5,35.2,29.71,North,349,0.0,19.0,48,0.00,,---,0.00,VWS V12.07,2013-07-22 06:38:00,
2013-07-21 23:41:00,54.5,34.7,29.71,North,349,0.0,19.0,47,0.00,,---,0.00,VWS V12.07,2013-07-22 06:41:00,
2013-07-21 23:42:00,54.5,34.7,29.71,North,349,0.0,19.0,47,0.00,,---,0.00,VWS V12.07,2013-07-22 06:42:00,
2013-07-21 23:43:00,54.5,34.7,29.71,North,349,0.0,19.0,47,0.00,,---,0.00,VWS V12.07,2013-07-22 06:43:00,
2013-07-21 23:44:00,54.4,34.6,29.71,North,349,0.0,19.0,47,0.00,,---,0.00,VWS V12.07,2013-07-22 06:44:00,
2013-07-21 23:46:00,54.4,35.1,29.72,North,349,0.0,19.0,48,0.00,,---,0.00,VWS V12.07,2013-07-22 06:46:00,
2013-07-21 23:47:00,54.2,35.0,29.72,North,349,0.0,19.0,48,0.00,,---,0.00,VWS V12.07,2013-07-22 06:47:00,
2013-07-21 23:48:00,54.1,34.9,29.72,North,349,0.0,19.0,48,0.00,,---,0.00,VWS V12.07,2013-07-22 06:48:00,
2013-07-21 23:49:00,54.1,34.9,29.72,North,349,0.0,19.0,48,0.00,,---,0.00,VWS V12.07,2013-07-22 06:49:00,
2013-07-21 23:51:00,53.9,35.2,29.72,North,349,0.0,19.0,49,0.00,,---,0.00,VWS V12.07,2013-07-22 06:51:00,
2013-07-21 23:53:00,53.6,33.9,29.72,North,349,0.0,19.0,47,0.00,,---,0.00,VWS V12.07,2013-07-22 06:53:00,
2013-07-21 23:54:00,53.6,33.9,29.72,North,349,0.0,19.0,47,0.00,,---,0.00,VWS V12.07,2013-07-22 06:54:00,
2013-07-21 23:56:00,53.6,33.3,29.72,North,349,0.0,19.0,46,0.00,,---,0.00,VWS V12.07,2013-07-22 06:56:00,
2013-07-21 23:59:00,53.5,33.2,29.72,North,349,0.0,19.0,46,0.00,,---,0.00,VWS V12.07,2013-07-22 06:59:00,